Wetterdaten: Mittwoch, 07.06.2017
Datum Zeit Temp. Aussen Temp. o. S. +5cm Feuchte Auss BlattFeu 1 Luftdruck Regen Sonnenschein Regendauer Solar Windben Empfang
07.06.2017 00:00 13,1 C 12,8 C 11,7 C 73 % 0 lf 1004,7 hPa 0,0 l/m 0 min 0 min 5 W/m 33,5 km/h (5 Bft) 95,65 %
07.06.2017 00:02 13,1 C 12,8 C 11,7 C 73 % 0 lf 1004,7 hPa 0,0 l/m 0 min 0 min 5 W/m 29,3 km/h (5 Bft) 97,22 %
07.06.2017 00:04 13,1 C 12,8 C 11,7 C 73 % 0 lf 1004,7 hPa 0,0 l/m 0 min 0 min 5 W/m 29,3 km/h (5 Bft) 97,87 %
07.06.2017 00:06 13,1 C 12,8 C 11,1 C 73 % 0 lf 1004,7 hPa 0,0 l/m 0 min 0 min 5 W/m 20,9 km/h (4 Bft) 95,74 %
07.06.2017 00:10 13,0 C 12,8 C 11,1 C 73 % 0 lf 1004,8 hPa 0,0 l/m 0 min 0 min 5 W/m 39,7 km/h (6 Bft) 95,70 %
07.06.2017 00:12 13,0 C 12,8 C 11,1 C 74 % 0 lf 1004,8 hPa 0,0 l/m 0 min 0 min 5 W/m 35,6 km/h (5 Bft) 95,74 %
07.06.2017 00:14 13,0 C 12,8 C 11,1 C 74 % 0 lf 1004,8 hPa 0,0 l/m 0 min 0 min 5 W/m 39,7 km/h (6 Bft) 93,62 %
07.06.2017 00:16 12,9 C 12,8 C 11,1 C 74 % 0 lf 1004,7 hPa 0,0 l/m 0 min 0 min 5 W/m 25,1 km/h (4 Bft) 100,00 %
07.06.2017 00:18 12,9 C 12,8 C 11,1 C 74 % 0 lf 1004,8 hPa 0,0 l/m 0 min 0 min 5 W/m 23,0 km/h (4 Bft) 100,00 %
07.06.2017 00:20 12,9 C 12,8 C 11,1 C 74 % 0 lf 1004,8 hPa 0,0 l/m 0 min 0 min 5 W/m 35,6 km/h (5 Bft) 100,00 %
07.06.2017 00:22 12,9 C 12,8 C 11,1 C 74 % 0 lf 1004,7 hPa 0,0 l/m 0 min 0 min 5 W/m 29,3 km/h (5 Bft) 97,83 %
07.06.2017 00:24 12,9 C 12,8 C 11,1 C 74 % 0 lf 1004,7 hPa 0,0 l/m 0 min 0 min 5 W/m 39,7 km/h (6 Bft) 100,00 %
07.06.2017 00:26 12,8 C 12,8 C 11,1 C 74 % 0 lf 1004,8 hPa 0,0 l/m 0 min 0 min 5 W/m 27,2 km/h (4 Bft) 97,87 %
07.06.2017 00:28 12,8 C 12,8 C 11,1 C 75 % 0 lf 1004,7 hPa 0,0 l/m 0 min 0 min 5 W/m 27,2 km/h (4 Bft) 100,00 %
07.06.2017 00:30 12,8 C 12,8 C 11,1 C 75 % 0 lf 1004,8 hPa 0,0 l/m 0 min 0 min 5 W/m 12,6 km/h (3 Bft) 97,87 %
07.06.2017 00:32 12,8 C 12,2 C 11,1 C 75 % 0 lf 1004,8 hPa 0,0 l/m 0 min 0 min 5 W/m 25,1 km/h (4 Bft) 97,87 %
07.06.2017 00:34 12,7 C 12,8 C 11,1 C 75 % 0 lf 1004,8 hPa 0,0 l/m 0 min 0 min 5 W/m 37,7 km/h (5 Bft) 97,83 %
07.06.2017 00:36 12,7 C 12,8 C 11,1 C 75 % 0 lf 1004,8 hPa 0,0 l/m 0 min 0 min 5 W/m 31,4 km/h (5 Bft) 94,55 %
07.06.2017 00:38 12,7 C 12,2 C 11,1 C 75 % 0 lf 1004,8 hPa 0,0 l/m 0 min 0 min 5 W/m 29,3 km/h (5 Bft) 95,74 %
07.06.2017 00:40 12,7 C 12,8 C 11,1 C 75 % 0 lf 1004,9 hPa 0,0 l/m 0 min 0 min 5 W/m 29,3 km/h (5 Bft) 95,74 %
07.06.2017 00:42 12,7 C 12,2 C 11,1 C 75 % 0 lf 1004,8 hPa 0,0 l/m 0 min 0 min 5 W/m 25,1 km/h (4 Bft) 95,74 %
07.06.2017 00:44 12,6 C 12,2 C 10,6 C 76 % 0 lf 1004,9 hPa 0,0 l/m 0 min 0 min 5 W/m 46,0 km/h (6 Bft) 97,87 %
07.06.2017 00:46 12,6 C 12,2 C 11,1 C 76 % 0 lf 1004,9 hPa 0,0 l/m 0 min 0 min 5 W/m 39,7 km/h (6 Bft) 95,65 %
07.06.2017 00:48 12,6 C 12,2 C 11,1 C 76 % 0 lf 1004,9 hPa 0,0 l/m 0 min 0 min 5 W/m 23,0 km/h (4 Bft) 97,87 %
07.06.2017 00:50 12,6 C 12,2 C 11,1 C 76 % 0 lf 1005,0 hPa 0,0 l/m 0 min 0 min 5 W/m 35,6 km/h (5 Bft) 95,74 %
07.06.2017 00:52 12,6 C 12,2 C 11,1 C 76 % 0 lf 1005,0 hPa 0,0 l/m 0 min 0 min 5 W/m 27,2 km/h (4 Bft) 95,74 %
07.06.2017 00:54 12,6 C 12,2 C 11,1 C 76 % 0 lf 1005,0 hPa 0,0 l/m 0 min 0 min 5 W/m 25,1 km/h (4 Bft) 97,87 %
07.06.2017 00:56 12,6 C 12,2 C 10,6 C 76 % 0 lf 1004,9 hPa 0,0 l/m 0 min 0 min 5 W/m 39,7 km/h (6 Bft) 97,87 %
07.06.2017 00:58 12,6 C 12,2 C 11,1 C 76 % 0 lf 1005,0 hPa 0,0 l/m 0 min 0 min 5 W/m 29,3 km/h (5 Bft) 97,83 %
07.06.2017 01:00 12,6 C 12,2 C 11,1 C 76 % 0 lf 1004,9 hPa 0,0 l/m 0 min 0 min 5 W/m 27,2 km/h (4 Bft) 97,87 %
07.06.2017 01:02 12,5 C 12,2 C 10,6 C 76 % 0 lf 1005,0 hPa 0,0 l/m 0 min 0 min 5 W/m 27,2 km/h (4 Bft) 93,62 %
07.06.2017 01:04 12,5 C 12,2 C 10,6 C 76 % 0 lf 1004,9 hPa 0,0 l/m 0 min 0 min 5 W/m 23,0 km/h (4 Bft) 97,87 %
07.06.2017 01:06 12,5 C 12,2 C 10,6 C 76 % 0 lf 1004,9 hPa 0,0 l/m 0 min 0 min 5 W/m 27,2 km/h (4 Bft) 89,36 %
07.06.2017 01:08 12,5 C 12,2 C 10,6 C 76 % 0 lf 1005,0 hPa 0,0 l/m 0 min 0 min 5 W/m 33,5 km/h (5 Bft) 97,87 %
07.06.2017 01:10 12,4 C 12,2 C 10,6 C 76 % 0 lf 1005,0 hPa 0,0 l/m 0 min 0 min 5 W/m 27,2 km/h (4 Bft) 97,83 %
07.06.2017 01:12 12,4 C 12,2 C 10,6 C 76 % 0 lf 1005,0 hPa 0,0 l/m 0 min 0 min 5 W/m 23,0 km/h (4 Bft) 97,87 %
07.06.2017 01:14 12,4 C 12,2 C 10,6 C 77 % 0 lf 1005,2 hPa 0,0 l/m 0 min 0 min 5 W/m 29,3 km/h (5 Bft) 93,62 %
07.06.2017 01:16 12,4 C 12,2 C 10,6 C 77 % 0 lf 1005,1 hPa 0,0 l/m 0 min 0 min 5 W/m 35,6 km/h (5 Bft) 95,74 %
07.06.2017 01:18 12,4 C 12,2 C 10,6 C 77 % 0 lf 1005,1 hPa 0,0 l/m 0 min 0 min 5 W/m 33,5 km/h (5 Bft) 95,74 %
07.06.2017 01:20 12,4 C 12,2 C 11,1 C 77 % 0 lf 1005,1 hPa 0,0 l/m 0 min 0 min 5 W/m 33,5 km/h (5 Bft) 100,00 %
07.06.2017 01:22 12,4 C 12,2 C 10,6 C 77 % 0 lf 1005,1 hPa 0,0 l/m 0 min 0 min 5 W/m 23,0 km/h (4 Bft) 93,48 %
07.06.2017 01:24 12,4 C 12,2 C 10,6 C 77 % 0 lf 1005,2 hPa 0,0 l/m 0 min 0 min 5 W/m 39,7 km/h (6 Bft) 93,62 %
07.06.2017 01:26 12,4 C 12,2 C 11,1 C 77 % 0 lf 1005,2 hPa 0,0 l/m 0 min 0 min 5 W/m 33,5 km/h (5 Bft) 97,87 %
07.06.2017 01:28 12,4 C 12,2 C 10,6 C 77 % 0 lf 1005,2 hPa 0,0 l/m 0 min 0 min 5 W/m 25,1 km/h (4 Bft) 95,74 %
07.06.2017 01:30 12,4 C 12,2 C 10,6 C 77 % 0 lf 1005,3 hPa 0,0 l/m 0 min 0 min 5 W/m 27,2 km/h (4 Bft) 97,87 %
07.06.2017 01:32 12,4 C 12,2 C 10,6 C 77 % 0 lf 1005,2 hPa 0,0 l/m 0 min 0 min 5 W/m 23,0 km/h (4 Bft) 95,83 %
07.06.2017 01:34 12,4 C 12,2 C 10,6 C 77 % 0 lf 1005,3 hPa 0,0 l/m 0 min 0 min 5 W/m 23,0 km/h (4 Bft) 95,65 %
07.06.2017 01:36 12,4 C 12,2 C 10,6 C 77 % 0 lf 1005,3 hPa 0,0 l/m 0 min 0 min 5 W/m 31,4 km/h (5 Bft) 95,74 %
07.06.2017 01:38 12,4 C 12,2 C 10,6 C 77 % 0 lf 1005,4 hPa 0,0 l/m 0 min 0 min 5 W/m 25,1 km/h (4 Bft) 97,87 %
07.06.2017 01:40 12,3 C 12,2 C 10,6 C 77 % 0 lf 1005,4 hPa 0,0 l/m 0 min 0 min 5 W/m 18,8 km/h (3 Bft) 93,62 %
07.06.2017 01:42 12,3 C 12,2 C 10,6 C 77 % 0 lf 1005,4 hPa 0,0 l/m 0 min 0 min 5 W/m 33,5 km/h (5 Bft) 95,74 %
07.06.2017 01:44 12,3 C 12,2 C 10,6 C 77 % 0 lf 1005,4 hPa 0,0 l/m 0 min 0 min 5 W/m 18,8 km/h (3 Bft) 93,48 %
07.06.2017 01:46 12,3 C 12,2 C 10,6 C 77 % 0 lf 1005,4 hPa 0,0 l/m 0 min 0 min 5 W/m 20,9 km/h (4 Bft) 93,62 %
07.06.2017 01:48 12,3 C 12,2 C 10,6 C 78 % 0 lf 1005,5 hPa 0,0 l/m 0 min 0 min 5 W/m 25,1 km/h (4 Bft) 97,87 %
07.06.2017 01:50 12,3 C 12,2 C 10,6 C 78 % 0 lf 1005,5 hPa 0,0 l/m 0 min 0 min 5 W/m 20,9 km/h (4 Bft) 97,87 %
07.06.2017 01:52 12,3 C 12,2 C 10,6 C 78 % 0 lf 1005,4 hPa 0,0 l/m 0 min 0 min 5 W/m 31,4 km/h (5 Bft) 93,62 %
07.06.2017 01:54 12,2 C 12,2 C 10,6 C 78 % 0 lf 1005,4 hPa 0,0 l/m 0 min 0 min 5 W/m 31,4 km/h (5 Bft) 95,74 %
07.06.2017 01:56 12,2 C 12,2 C 10,6 C 78 % 0 lf 1005,5 hPa 0,0 l/m 0 min 0 min 5 W/m 23,0 km/h (4 Bft) 95,65 %
07.06.2017 01:58 12,2 C 12,2 C 10,6 C 78 % 0 lf 1005,4 hPa 0,0 l/m 0 min 0 min 5 W/m 16,7 km/h (3 Bft) 97,87 %
07.06.2017 02:00 12,2 C 12,2 C 10,6 C 78 % 0 lf 1005,4 hPa 0,0 l/m 0 min 0 min 5 W/m 37,7 km/h (5 Bft) 93,62 %
07.06.2017 02:02 12,2 C 12,2 C 10,6 C 78 % 0 lf 1005,4 hPa 0,0 l/m 0 min 0 min 5 W/m 20,9 km/h (4 Bft) 94,74 %
07.06.2017 02:04 12,2 C 12,2 C 10,6 C 78 % 0 lf 1005,4 hPa 0,0 l/m 0 min 0 min 5 W/m 23,0 km/h (4 Bft) 95,74 %
07.06.2017 02:06 12,2 C 12,2 C 10,6 C 78 % 0 lf 1005,5 hPa 0,0 l/m 0 min 0 min 5 W/m 35,6 km/h (5 Bft) 91,49 %
07.06.2017 02:08 12,2 C 12,2 C 10,6 C 78 % 0 lf 1005,5 hPa 0,0 l/m 0 min 0 min 5 W/m 25,1 km/h (4 Bft) 95,65 %
07.06.2017 02:10 12,2 C 12,2 C 10,6 C 78 % 0 lf 1005,4 hPa 0,0 l/m 0 min 0 min 5 W/m 37,7 km/h (5 Bft) 95,74 %
07.06.2017 02:12 12,2 C 12,2 C 10,6 C 78 % 0 lf 1005,4 hPa 0,0 l/m 0 min 0 min 5 W/m 35,6 km/h (5 Bft) 89,36 %
07.06.2017 02:14 12,2 C 12,2 C 10,6 C 78 % 0 lf 1005,4 hPa 0,0 l/m 0 min 0 min 5 W/m 27,2 km/h (4 Bft) 97,87 %
07.06.2017 02:16 12,2 C 12,2 C 10,6 C 78 % 0 lf 1005,4 hPa 0,0 l/m 0 min 0 min 5 W/m 37,7 km/h (5 Bft) 95,74 %
07.06.2017 02:18 12,3 C 12,2 C 11,1 C 78 % 0 lf 1005,4 hPa 0,0 l/m 0 min 0 min 5 W/m 35,6 km/h (5 Bft) 95,74 %
07.06.2017 02:20 12,3 C 12,2 C 11,1 C 78 % 0 lf 1005,4 hPa 0,0 l/m 0 min 0 min 5 W/m 33,5 km/h (5 Bft) 95,65 %
07.06.2017 02:22 12,3 C 12,2 C 11,1 C 78 % 0 lf 1005,5 hPa 0,0 l/m 0 min 0 min 5 W/m 31,4 km/h (5 Bft) 95,74 %
07.06.2017 02:24 12,3 C 12,2 C 11,1 C 78 % 0 lf 1005,5 hPa 0,0 l/m 0 min 0 min 5 W/m 27,2 km/h (4 Bft) 95,74 %
07.06.2017 02:26 12,3 C 12,8 C 11,1 C 78 % 0 lf 1005,6 hPa 0,0 l/m 0 min 0 min 5 W/m 39,7 km/h (6 Bft) 95,74 %
07.06.2017 02:28 12,3 C 12,2 C 11,1 C 78 % 0 lf 1005,5 hPa 0,0 l/m 0 min 0 min 5 W/m 29,3 km/h (5 Bft) 91,49 %
07.06.2017 02:30 12,4 C 12,2 C 11,1 C 78 % 0 lf 1005,6 hPa 0,0 l/m 0 min 0 min 5 W/m 27,2 km/h (4 Bft) 95,74 %
07.06.2017 02:32 12,4 C 12,2 C 11,1 C 78 % 0 lf 1005,6 hPa 0,0 l/m 0 min 0 min 5 W/m 33,5 km/h (5 Bft) 93,48 %
07.06.2017 02:34 12,4 C 12,2 C 11,1 C 78 % 0 lf 1005,5 hPa 0,0 l/m 0 min 0 min 5 W/m 23,0 km/h (4 Bft) 93,62 %
07.06.2017 02:36 12,4 C 12,2 C 11,1 C 78 % 0 lf 1005,5 hPa 0,0 l/m 0 min 0 min 5 W/m 25,1 km/h (4 Bft) 95,74 %
07.06.2017 02:38 12,4 C 12,2 C 11,1 C 77 % 0 lf 1005,6 hPa 0,0 l/m 0 min 0 min 5 W/m 33,5 km/h (5 Bft) 93,62 %
07.06.2017 02:40 12,4 C 12,2 C 11,1 C 77 % 0 lf 1005,6 hPa 0,0 l/m 0 min 0 min 5 W/m 35,6 km/h (5 Bft) 95,74 %
07.06.2017 02:42 12,4 C 12,2 C 11,1 C 77 % 0 lf 1005,6 hPa 0,0 l/m 0 min 0 min 5 W/m 27,2 km/h (4 Bft) 95,74 %
07.06.2017 02:44 12,4 C 12,2 C 11,1 C 77 % 0 lf 1005,6 hPa 0,0 l/m 0 min 0 min 5 W/m 37,7 km/h (5 Bft) 95,65 %
07.06.2017 02:46 12,4 C 12,2 C 11,1 C 77 % 0 lf 1005,6 hPa 0,0 l/m 0 min 0 min 5 W/m 20,9 km/h (4 Bft) 95,74 %
07.06.2017 02:48 12,4 C 12,2 C 11,1 C 77 % 0 lf 1005,5 hPa 0,0 l/m 0 min 0 min 5 W/m 23,0 km/h (4 Bft) 95,74 %
07.06.2017 02:50 12,4 C 12,2 C 11,1 C 77 % 0 lf 1005,6 hPa 0,0 l/m 0 min 0 min 5 W/m 35,6 km/h (5 Bft) 93,62 %
07.06.2017 02:52 12,4 C 12,2 C 11,1 C 77 % 0 lf 1005,6 hPa 0,0 l/m 0 min 0 min 5 W/m 31,4 km/h (5 Bft) 97,87 %
07.06.2017 02:54 12,4 C 12,2 C 11,1 C 77 % 0 lf 1005,7 hPa 0,0 l/m 0 min 0 min 5 W/m 33,5 km/h (5 Bft) 95,65 %
07.06.2017 02:56 12,4 C 12,2 C 11,1 C 77 % 0 lf 1005,6 hPa 0,0 l/m 0 min 0 min 5 W/m 35,6 km/h (5 Bft) 97,87 %
07.06.2017 02:58 12,4 C 12,2 C 10,6 C 77 % 0 lf 1005,6 hPa 0,0 l/m 0 min 0 min 5 W/m 25,1 km/h (4 Bft) 91,49 %
07.06.2017 03:00 12,4 C 12,2 C 10,6 C 77 % 0 lf 1005,6 hPa 0,0 l/m 0 min 0 min 5 W/m 31,4 km/h (5 Bft) 95,74 %
07.06.2017 03:02 12,4 C 12,2 C 10,6 C 77 % 0 lf 1005,8 hPa 0,0 l/m 0 min 0 min 5 W/m 41,8 km/h (6 Bft) 95,92 %
07.06.2017 03:04 12,3 C 12,2 C 10,6 C 77 % 0 lf 1005,6 hPa 0,0 l/m 0 min 0 min 5 W/m 37,7 km/h (5 Bft) 93,62 %
07.06.2017 03:06 12,3 C 12,2 C 10,6 C 77 % 0 lf 1005,7 hPa 0,0 l/m 0 min 0 min 5 W/m 39,7 km/h (6 Bft) 97,87 %
07.06.2017 03:08 12,3 C 12,2 C 10,6 C 77 % 0 lf 1005,7 hPa 0,0 l/m 0 min 0 min 5 W/m 35,6 km/h (5 Bft) 95,65 %
07.06.2017 03:10 12,3 C 12,2 C 10,6 C 77 % 0 lf 1005,7 hPa 0,0 l/m 0 min 0 min 5 W/m 29,3 km/h (5 Bft) 97,87 %
07.06.2017 03:12 12,3 C 12,2 C 10,6 C 77 % 0 lf 1005,6 hPa 0,0 l/m 0 min 0 min 5 W/m 18,8 km/h (3 Bft) 97,92 %
07.06.2017 03:14 12,3 C 12,2 C 10,6 C 77 % 0 lf 1005,6 hPa 0,0 l/m 0 min 0 min 5 W/m 29,3 km/h (5 Bft) 100,00 %
07.06.2017 03:16 12,3 C 12,2 C 10,6 C 78 % 0 lf 1005,7 hPa 0,0 l/m 0 min 0 min 5 W/m 31,4 km/h (5 Bft) 97,87 %
07.06.2017 03:18 12,2 C 12,2 C 10,6 C 78 % 0 lf 1005,7 hPa 0,0 l/m 0 min 0 min 5 W/m 35,6 km/h (5 Bft) 95,74 %
07.06.2017 03:20 12,2 C 12,2 C 10,6 C 78 % 0 lf 1005,7 hPa 0,0 l/m 0 min 0 min 5 W/m 25,1 km/h (4 Bft) 93,48 %
07.06.2017 03:22 12,2 C 12,2 C 10,6 C 78 % 0 lf 1005,7 hPa 0,0 l/m 0 min 0 min 5 W/m 23,0 km/h (4 Bft) 93,62 %
07.06.2017 03:24 12,2 C 12,2 C 10,6 C 78 % 0 lf 1005,6 hPa 0,0 l/m 0 min 0 min 5 W/m 33,5 km/h (5 Bft) 95,74 %
07.06.2017 03:26 12,2 C 12,2 C 10,6 C 78 % 0 lf 1005,7 hPa 0,0 l/m 0 min 0 min 5 W/m 33,5 km/h (5 Bft) 91,49 %
07.06.2017 03:28 12,2 C 12,2 C 10,6 C 78 % 0 lf 1005,7 hPa 0,0 l/m 0 min 0 min 5 W/m 23,0 km/h (4 Bft) 95,74 %
07.06.2017 03:30 12,1 C 12,2 C 10,6 C 78 % 0 lf 1005,7 hPa 0,0 l/m 0 min 0 min 5 W/m 25,1 km/h (4 Bft) 95,74 %
07.06.2017 03:32 12,1 C 12,2 C 10,6 C 79 % 0 lf 1005,7 hPa 0,0 l/m 0 min 0 min 5 W/m 35,6 km/h (5 Bft) 95,74 %
07.06.2017 03:34 12,1 C 12,2 C 10,6 C 79 % 0 lf 1005,7 hPa 0,0 l/m 0 min 0 min 5 W/m 27,2 km/h (4 Bft) 93,62 %
07.06.2017 03:36 12,1 C 12,2 C 10,6 C 79 % 0 lf 1005,7 hPa 0,0 l/m 0 min 0 min 5 W/m 25,1 km/h (4 Bft) 91,49 %
07.06.2017 03:38 12,1 C 12,2 C 10,6 C 79 % 0 lf 1005,8 hPa 0,0 l/m 0 min 0 min 5 W/m 29,3 km/h (5 Bft) 93,62 %
07.06.2017 03:40 12,1 C 12,2 C 10,6 C 79 % 0 lf 1005,7 hPa 0,0 l/m 0 min 0 min 5 W/m 29,3 km/h (5 Bft) 95,74 %
07.06.2017 03:42 12,1 C 12,2 C 10,6 C 79 % 0 lf 1005,8 hPa 0,0 l/m 0 min 0 min 5 W/m 31,4 km/h (5 Bft) 95,65 %
07.06.2017 03:44 12,1 C 12,2 C 11,1 C 79 % 0 lf 1005,7 hPa 0,0 l/m 0 min 0 min 5 W/m 39,7 km/h (6 Bft) 95,74 %
07.06.2017 03:46 12,1 C 12,2 C 11,1 C 80 % 0 lf 1005,9 hPa 0,0 l/m 0 min 0 min 5 W/m 18,8 km/h (3 Bft) 93,62 %
07.06.2017 03:48 12,1 C 12,2 C 11,1 C 80 % 0 lf 1005,8 hPa 0,0 l/m 0 min 0 min 5 W/m 31,4 km/h (5 Bft) 93,62 %
07.06.2017 03:50 12,2 C 12,2 C 10,6 C 80 % 0 lf 1005,7 hPa 0,0 l/m 0 min 2 min 5 W/m 46,0 km/h (6 Bft) 95,74 %
07.06.2017 03:52 12,2 C 12,2 C 10,6 C 80 % 0 lf 1005,7 hPa 0,0 l/m 0 min 0 min 5 W/m 29,3 km/h (5 Bft) 97,87 %
07.06.2017 03:54 12,2 C 12,2 C 10,6 C 80 % 0 lf 1005,8 hPa 0,0 l/m 0 min 0 min 5 W/m 35,6 km/h (5 Bft) 95,65 %
07.06.2017 03:56 12,2 C 12,2 C 10,6 C 80 % 0 lf 1005,7 hPa 0,0 l/m 0 min 0 min 5 W/m 37,7 km/h (5 Bft) 97,87 %
07.06.2017 03:58 12,1 C 12,2 C 10,6 C 80 % 0 lf 1005,8 hPa 0,0 l/m 0 min 0 min 5 W/m 31,4 km/h (5 Bft) 95,74 %
07.06.2017 04:00 12,1 C 12,2 C 10,6 C 80 % 0 lf 1005,8 hPa 0,0 l/m 0 min 0 min 5 W/m 27,2 km/h (4 Bft) 95,74 %
07.06.2017 04:02 12,1 C 12,2 C 10,6 C 80 % 0 lf 1005,7 hPa 0,0 l/m 0 min 0 min 5 W/m 18,8 km/h (3 Bft) 94,44 %
07.06.2017 04:04 12,1 C 12,2 C 10,6 C 80 % 0 lf 1005,8 hPa 0,0 l/m 0 min 0 min 5 W/m 25,1 km/h (4 Bft) 97,96 %
07.06.2017 04:06 12,1 C 12,2 C 10,6 C 80 % 0 lf 1005,8 hPa 0,0 l/m 0 min 0 min 5 W/m 23,0 km/h (4 Bft) 100,00 %
07.06.2017 04:08 12,1 C 12,2 C 10,6 C 80 % 0 lf 1005,9 hPa 0,0 l/m 0 min 0 min 5 W/m 31,4 km/h (5 Bft) 100,00 %
07.06.2017 04:10 12,1 C 12,2 C 10,6 C 80 % 0 lf 1005,9 hPa 0,0 l/m 0 min 0 min 5 W/m 29,3 km/h (5 Bft) 100,00 %
07.06.2017 04:12 12,1 C 12,2 C 10,6 C 80 % 0 lf 1005,9 hPa 0,0 l/m 0 min 0 min 5 W/m 35,6 km/h (5 Bft) 97,92 %
07.06.2017 04:14 12,1 C 12,2 C 10,6 C 80 % 0 lf 1005,9 hPa 0,0 l/m 0 min 0 min 5 W/m 33,5 km/h (5 Bft) 95,74 %
07.06.2017 04:16 12,1 C 12,2 C 10,6 C 80 % 0 lf 1005,8 hPa 0,0 l/m 0 min 0 min 5 W/m 31,4 km/h (5 Bft) 97,87 %
07.06.2017 04:18 12,1 C 12,2 C 10,6 C 80 % 0 lf 1005,9 hPa 0,0 l/m 0 min 0 min 5 W/m 29,3 km/h (5 Bft) 100,00 %
07.06.2017 04:20 12,1 C 12,2 C 10,6 C 80 % 0 lf 1005,9 hPa 0,0 l/m 0 min 0 min 5 W/m 27,2 km/h (4 Bft) 97,87 %
07.06.2017 04:22 12,1 C 12,2 C 10,6 C 80 % 0 lf 1005,9 hPa 0,0 l/m 0 min 0 min 5 W/m 29,3 km/h (5 Bft) 100,00 %
07.06.2017 04:24 12,1 C 12,2 C 10,6 C 80 % 0 lf 1006,0 hPa 0,0 l/m 0 min 0 min 5 W/m 23,0 km/h (4 Bft) 97,87 %
07.06.2017 04:26 12,1 C 12,2 C 10,6 C 80 % 0 lf 1006,1 hPa 0,0 l/m 0 min 0 min 5 W/m 39,7 km/h (6 Bft) 93,62 %
07.06.2017 04:28 12,1 C 12,2 C 10,6 C 80 % 0 lf 1006,2 hPa 0,0 l/m 0 min 0 min 5 W/m 31,4 km/h (5 Bft) 100,00 %
07.06.2017 04:30 12,1 C 12,2 C 10,6 C 80 % 0 lf 1006,2 hPa 0,0 l/m 0 min 0 min 5 W/m 41,8 km/h (6 Bft) 100,00 %
07.06.2017 04:32 12,1 C 12,2 C 10,6 C 80 % 0 lf 1006,2 hPa 0,0 l/m 0 min 0 min 5 W/m 39,7 km/h (6 Bft) 95,83 %
07.06.2017 04:34 12,1 C 12,2 C 10,6 C 80 % 0 lf 1006,1 hPa 0,0 l/m 0 min 0 min 5 W/m 27,2 km/h (4 Bft) 100,00 %
07.06.2017 04:36 12,1 C 12,2 C 10,6 C 80 % 0 lf 1006,2 hPa 0,0 l/m 0 min 0 min 5 W/m 35,6 km/h (5 Bft) 94,29 %
07.06.2017 04:38 12,1 C 12,2 C 10,6 C 79 % 0 lf 1006,2 hPa 0,0 l/m 0 min 0 min 5 W/m 33,5 km/h (5 Bft) 100,00 %
07.06.2017 04:40 12,0 C 12,2 C 10,6 C 80 % 0 lf 1006,1 hPa 0,0 l/m 0 min 0 min 5 W/m 29,3 km/h (5 Bft) 100,00 %
07.06.2017 04:42 12,0 C 12,2 C 10,6 C 80 % 0 lf 1006,1 hPa 0,0 l/m 0 min 0 min 5 W/m 31,4 km/h (5 Bft) 100,00 %
07.06.2017 04:44 12,0 C 12,2 C 10,6 C 79 % 0 lf 1006,1 hPa 0,0 l/m 0 min 0 min 5 W/m 25,1 km/h (4 Bft) 100,00 %
07.06.2017 04:46 12,0 C 12,2 C 10,6 C 79 % 0 lf 1006,1 hPa 0,0 l/m 0 min 0 min 5 W/m 29,3 km/h (5 Bft) 95,74 %
07.06.2017 04:48 12,0 C 12,2 C 10,6 C 79 % 0 lf 1006,2 hPa 0,0 l/m 0 min 0 min 5 W/m 41,8 km/h (6 Bft) 91,49 %
07.06.2017 04:50 12,0 C 11,7 C 10,6 C 79 % 0 lf 1006,1 hPa 0,0 l/m 0 min 0 min 5 W/m 25,1 km/h (4 Bft) 93,62 %
07.06.2017 04:52 12,0 C 11,7 C 10,6 C 79 % 0 lf 1006,2 hPa 0,0 l/m 0 min 0 min 5 W/m 33,5 km/h (5 Bft) 100,00 %
07.06.2017 04:54 11,9 C 11,7 C 10,6 C 79 % 0 lf 1006,3 hPa 0,0 l/m 0 min 0 min 5 W/m 23,0 km/h (4 Bft) 97,87 %
07.06.2017 04:56 11,9 C 11,7 C 10,0 C 79 % 0 lf 1006,2 hPa 0,0 l/m 0 min 0 min 5 W/m 20,9 km/h (4 Bft) 95,74 %
07.06.2017 04:58 11,9 C 11,7 C 10,0 C 80 % 0 lf 1006,3 hPa 0,0 l/m 0 min 0 min 5 W/m 35,6 km/h (5 Bft) 95,74 %
07.06.2017 05:00 11,9 C 11,7 C 10,0 C 80 % 0 lf 1006,2 hPa 0,0 l/m 0 min 0 min 5 W/m 31,4 km/h (5 Bft) 97,87 %
07.06.2017 05:02 11,9 C 11,7 C 10,0 C 80 % 0 lf 1006,3 hPa 0,0 l/m 0 min 0 min 5 W/m 23,0 km/h (4 Bft) 97,87 %
07.06.2017 05:04 11,9 C 11,7 C 10,6 C 80 % 0 lf 1006,3 hPa 0,0 l/m 0 min 0 min 5 W/m 37,7 km/h (5 Bft) 97,83 %
07.06.2017 05:06 11,9 C 11,7 C 10,6 C 80 % 0 lf 1006,4 hPa 0,0 l/m 0 min 0 min 5 W/m 35,6 km/h (5 Bft) 94,44 %
07.06.2017 05:08 11,9 C 11,7 C 10,6 C 80 % 0 lf 1006,3 hPa 0,0 l/m 0 min 0 min 5 W/m 27,2 km/h (4 Bft) 87,23 %
07.06.2017 05:10 11,9 C 11,7 C 10,6 C 80 % 0 lf 1006,5 hPa 0,0 l/m 0 min 0 min 5 W/m 29,3 km/h (5 Bft) 97,87 %
07.06.2017 05:12 11,9 C 12,2 C 10,6 C 80 % 0 lf 1006,3 hPa 0,0 l/m 0 min 0 min 5 W/m 25,1 km/h (4 Bft) 97,87 %
07.06.2017 05:14 11,9 C 11,7 C 10,6 C 80 % 0 lf 1006,4 hPa 0,0 l/m 0 min 0 min 5 W/m 27,2 km/h (4 Bft) 95,74 %
07.06.2017 05:16 11,9 C 11,7 C 10,6 C 80 % 0 lf 1006,4 hPa 0,0 l/m 0 min 0 min 6 W/m 29,3 km/h (5 Bft) 93,48 %
07.06.2017 05:18 11,9 C 11,7 C 10,6 C 80 % 0 lf 1006,3 hPa 0,0 l/m 0 min 0 min 7 W/m 25,1 km/h (4 Bft) 95,74 %
07.06.2017 05:20 11,9 C 11,7 C 10,6 C 80 % 0 lf 1006,4 hPa 0,0 l/m 0 min 0 min 7 W/m 35,6 km/h (5 Bft) 95,74 %
07.06.2017 05:22 11,9 C 12,2 C 10,6 C 80 % 0 lf 1006,5 hPa 0,0 l/m 0 min 0 min 7 W/m 37,7 km/h (5 Bft) 95,74 %
07.06.2017 05:24 11,9 C 12,2 C 10,6 C 80 % 0 lf 1006,3 hPa 0,0 l/m 0 min 0 min 7 W/m 27,2 km/h (4 Bft) 93,62 %
07.06.2017 05:26 11,9 C 12,2 C 10,6 C 80 % 0 lf 1006,4 hPa 0,0 l/m 0 min 0 min 7 W/m 43,9 km/h (6 Bft) 89,36 %
07.06.2017 05:28 11,9 C 12,2 C 10,6 C 80 % 0 lf 1006,4 hPa 0,0 l/m 0 min 0 min 9 W/m 35,6 km/h (5 Bft) 91,30 %
07.06.2017 05:30 11,9 C 12,2 C 10,6 C 80 % 0 lf 1006,5 hPa 0,0 l/m 0 min 0 min 9 W/m 33,5 km/h (5 Bft) 93,62 %
07.06.2017 05:32 11,9 C 12,2 C 10,6 C 80 % 0 lf 1006,4 hPa 0,0 l/m 0 min 0 min 9 W/m 27,2 km/h (4 Bft) 97,87 %
07.06.2017 05:34 11,9 C 12,2 C 10,6 C 80 % 0 lf 1006,5 hPa 0,0 l/m 0 min 0 min 9 W/m 37,7 km/h (5 Bft) 93,62 %
07.06.2017 05:36 11,9 C 12,2 C 10,6 C 80 % 0 lf 1006,4 hPa 0,0 l/m 0 min 0 min 10 W/m 37,7 km/h (5 Bft) 94,00 %
07.06.2017 05:38 11,9 C 12,2 C 10,6 C 80 % 0 lf 1006,5 hPa 0,0 l/m 0 min 0 min 11 W/m 41,8 km/h (6 Bft) 95,74 %
07.06.2017 05:40 11,9 C 12,2 C 10,6 C 80 % 0 lf 1006,6 hPa 0,0 l/m 0 min 0 min 11 W/m 25,1 km/h (4 Bft) 97,83 %
07.06.2017 05:42 11,9 C 12,2 C 10,6 C 80 % 0 lf 1006,5 hPa 0,0 l/m 0 min 0 min 11 W/m 29,3 km/h (5 Bft) 97,87 %
07.06.2017 05:44 11,9 C 11,7 C 10,6 C 80 % 0 lf 1006,5 hPa 0,0 l/m 0 min 0 min 11 W/m 20,9 km/h (4 Bft) 95,74 %
07.06.2017 05:46 11,9 C 12,2 C 10,6 C 80 % 0 lf 1006,6 hPa 0,0 l/m 0 min 0 min 12 W/m 39,7 km/h (6 Bft) 97,87 %
07.06.2017 05:48 11,9 C 12,2 C 10,6 C 80 % 0 lf 1006,6 hPa 0,0 l/m 0 min 0 min 12 W/m 33,5 km/h (5 Bft) 97,87 %
07.06.2017 05:50 11,9 C 11,7 C 10,6 C 80 % 0 lf 1006,7 hPa 0,0 l/m 0 min 0 min 12 W/m 35,6 km/h (5 Bft) 97,83 %
07.06.2017 05:52 11,9 C 11,7 C 10,6 C 80 % 0 lf 1006,5 hPa 0,0 l/m 0 min 0 min 15 W/m 35,6 km/h (5 Bft) 95,74 %
07.06.2017 05:54 11,9 C 11,7 C 10,6 C 80 % 0 lf 1006,6 hPa 0,0 l/m 0 min 0 min 18 W/m 37,7 km/h (5 Bft) 91,49 %
07.06.2017 05:56 11,9 C 12,2 C 10,6 C 80 % 0 lf 1006,7 hPa 0,0 l/m 0 min 0 min 20 W/m 39,7 km/h (6 Bft) 93,62 %
07.06.2017 05:58 11,8 C 12,2 C 10,6 C 80 % 0 lf 1006,6 hPa 0,0 l/m 0 min 0 min 23 W/m 27,2 km/h (4 Bft) 93,62 %
07.06.2017 06:00 11,9 C 12,2 C 10,6 C 80 % 0 lf 1006,6 hPa 0,0 l/m 0 min 0 min 19 W/m 27,2 km/h (4 Bft) 93,62 %
07.06.2017 06:02 11,9 C 12,2 C 10,6 C 80 % 0 lf 1006,7 hPa 0,0 l/m 0 min 0 min 16 W/m 35,6 km/h (5 Bft) 95,65 %
07.06.2017 06:04 11,9 C 12,2 C 10,6 C 80 % 0 lf 1006,7 hPa 0,0 l/m 0 min 0 min 16 W/m 31,4 km/h (5 Bft) 95,74 %
07.06.2017 06:06 11,9 C 12,2 C 10,6 C 80 % 0 lf 1006,7 hPa 0,0 l/m 0 min 0 min 16 W/m 31,4 km/h (5 Bft) 97,37 %
07.06.2017 06:08 11,9 C 12,2 C 10,6 C 80 % 0 lf 1006,7 hPa 0,0 l/m 0 min 0 min 18 W/m 27,2 km/h (4 Bft) 93,62 %
07.06.2017 06:10 11,9 C 12,2 C 10,6 C 80 % 0 lf 1006,8 hPa 0,0 l/m 0 min 0 min 21 W/m 33,5 km/h (5 Bft) 95,83 %
07.06.2017 06:12 11,9 C 12,2 C 10,6 C 80 % 0 lf 1006,8 hPa 0,0 l/m 0 min 0 min 22 W/m 35,6 km/h (5 Bft) 89,36 %
07.06.2017 06:14 11,9 C 12,2 C 10,6 C 80 % 0 lf 1006,7 hPa 0,0 l/m 0 min 0 min 22 W/m 35,6 km/h (5 Bft) 93,62 %
07.06.2017 06:16 11,9 C 12,2 C 10,6 C 80 % 0 lf 1006,8 hPa 0,0 l/m 0 min 0 min 27 W/m 27,2 km/h (4 Bft) 93,48 %
07.06.2017 06:18 11,9 C 12,2 C 10,6 C 81 % 0 lf 1006,8 hPa 0,0 l/m 0 min 0 min 29 W/m 27,2 km/h (4 Bft) 93,62 %
07.06.2017 06:20 11,9 C 12,2 C 10,6 C 81 % 0 lf 1006,8 hPa 0,0 l/m 0 min 0 min 29 W/m 46,0 km/h (6 Bft) 82,98 %
07.06.2017 06:22 11,9 C 12,2 C 11,1 C 81 % 0 lf 1006,8 hPa 0,0 l/m 0 min 0 min 36 W/m 31,4 km/h (5 Bft) 89,47 %
07.06.2017 06:24 11,9 C 12,2 C 11,1 C 81 % 0 lf 1006,9 hPa 0,0 l/m 0 min 0 min 39 W/m 37,7 km/h (5 Bft) 87,23 %
07.06.2017 06:26 11,9 C 12,2 C 11,1 C 81 % 0 lf 1006,9 hPa 0,0 l/m 0 min 0 min 44 W/m 31,4 km/h (5 Bft) 78,26 %
07.06.2017 06:28 11,9 C 12,2 C 11,1 C 81 % 0 lf 1006,9 hPa 0,0 l/m 0 min 0 min 36 W/m 48,1 km/h (6 Bft) 82,98 %
07.06.2017 06:30 11,9 C 12,2 C 11,1 C 81 % 0 lf 1006,9 hPa 0,0 l/m 0 min 0 min 37 W/m 43,9 km/h (6 Bft) 82,98 %
07.06.2017 06:32 11,9 C 12,2 C 11,1 C 81 % 0 lf 1006,9 hPa 0,0 l/m 0 min 0 min 35 W/m 37,7 km/h (5 Bft) 70,21 %
07.06.2017 06:34 11,9 C 12,2 C 11,1 C 81 % 0 lf 1006,9 hPa 0,0 l/m 0 min 0 min 26 W/m 25,1 km/h (4 Bft) 82,98 %
07.06.2017 06:36 11,9 C 12,2 C 11,1 C 81 % 0 lf 1007,0 hPa 0,0 l/m 0 min 0 min 29 W/m 35,6 km/h (5 Bft) 91,89 %
07.06.2017 06:38 11,9 C 12,2 C 11,1 C 81 % 0 lf 1007,0 hPa 0,0 l/m 0 min 0 min 30 W/m 31,4 km/h (5 Bft) 93,62 %
07.06.2017 06:40 11,9 C 12,2 C 11,1 C 81 % 0 lf 1007,0 hPa 0,0 l/m 0 min 0 min 45 W/m 20,9 km/h (4 Bft) 91,49 %
07.06.2017 06:42 11,9 C 12,2 C 11,1 C 81 % 0 lf 1007,0 hPa 0,0 l/m 0 min 0 min 44 W/m 33,5 km/h (5 Bft) 82,98 %
07.06.2017 06:44 11,9 C 12,2 C 11,1 C 81 % 0 lf 1007,0 hPa 0,0 l/m 0 min 0 min 47 W/m 33,5 km/h (5 Bft) 91,49 %
07.06.2017 06:46 11,9 C 12,2 C 11,1 C 81 % 0 lf 1007,0 hPa 0,0 l/m 0 min 0 min 54 W/m 29,3 km/h (5 Bft) 91,49 %
07.06.2017 06:48 11,9 C 12,2 C 11,1 C 81 % 0 lf 1007,0 hPa 0,0 l/m 0 min 0 min 61 W/m 31,4 km/h (5 Bft) 93,48 %
07.06.2017 06:50 11,9 C 12,2 C 11,1 C 82 % 0 lf 1007,1 hPa 0,0 l/m 0 min 0 min 66 W/m 39,7 km/h (6 Bft) 95,74 %
07.06.2017 06:52 11,9 C 12,2 C 11,1 C 82 % 0 lf 1007,0 hPa 0,0 l/m 0 min 0 min 77 W/m 37,7 km/h (5 Bft) 93,62 %
07.06.2017 06:54 11,9 C 12,2 C 11,1 C 81 % 0 lf 1007,0 hPa 0,0 l/m 2 min 0 min 113 W/m 31,4 km/h (5 Bft) 93,62 %
07.06.2017 06:56 11,9 C 12,2 C 11,1 C 81 % 0 lf 1007,0 hPa 0,0 l/m 0 min 0 min 81 W/m 43,9 km/h (6 Bft) 91,67 %
07.06.2017 06:58 11,9 C 12,2 C 11,1 C 81 % 0 lf 1007,1 hPa 0,0 l/m 0 min 0 min 65 W/m 41,8 km/h (6 Bft) 72,34 %
07.06.2017 07:00 11,9 C 12,2 C 11,1 C 81 % 0 lf 1007,0 hPa 0,0 l/m 0 min 0 min 73 W/m 35,6 km/h (5 Bft) 93,48 %
07.06.2017 07:02 11,9 C 12,2 C 11,1 C 81 % 0 lf 1007,0 hPa 0,0 l/m 2 min 0 min 133 W/m 52,3 km/h (7 Bft) 97,87 %
07.06.2017 07:04 11,9 C 12,8 C 11,1 C 81 % 0 lf 1007,1 hPa 0,0 l/m 2 min 0 min 142 W/m 33,5 km/h (5 Bft) 100,00 %
07.06.2017 07:06 12,0 C 12,8 C 11,1 C 81 % 0 lf 1007,0 hPa 0,0 l/m 0 min 0 min 103 W/m 37,7 km/h (5 Bft) 93,62 %
07.06.2017 07:08 12,0 C 12,8 C 11,1 C 81 % 0 lf 1007,1 hPa 0,0 l/m 0 min 0 min 113 W/m 37,7 km/h (5 Bft) 91,49 %
07.06.2017 07:10 12,1 C 12,8 C 11,1 C 81 % 0 lf 1007,1 hPa 0,0 l/m 0 min 0 min 111 W/m 43,9 km/h (6 Bft) 95,74 %
07.06.2017 07:12 12,1 C 12,8 C 11,1 C 81 % 0 lf 1007,0 hPa 0,0 l/m 0 min 0 min 90 W/m 37,7 km/h (5 Bft) 97,83 %
07.06.2017 07:14 12,1 C 12,8 C 11,1 C 81 % 0 lf 1007,0 hPa 0,0 l/m 0 min 0 min 92 W/m 41,8 km/h (6 Bft) 91,49 %
07.06.2017 07:16 12,1 C 12,8 C 11,7 C 81 % 0 lf 1007,1 hPa 0,0 l/m 2 min 0 min 137 W/m 33,5 km/h (5 Bft) 91,49 %
07.06.2017 07:18 12,1 C 12,8 C 11,7 C 81 % 0 lf 1007,1 hPa 0,0 l/m 2 min 0 min 148 W/m 46,0 km/h (6 Bft) 93,62 %
07.06.2017 07:20 12,1 C 12,8 C 11,7 C 81 % 0 lf 1007,1 hPa 0,0 l/m 0 min 0 min 97 W/m 43,9 km/h (6 Bft) 89,36 %
07.06.2017 07:22 12,1 C 12,8 C 11,7 C 81 % 0 lf 1007,1 hPa 0,0 l/m 0 min 0 min 111 W/m 39,7 km/h (6 Bft) 95,74 %
07.06.2017 07:24 12,2 C 12,8 C 11,7 C 81 % 0 lf 1007,1 hPa 0,0 l/m 0 min 0 min 120 W/m 27,2 km/h (4 Bft) 78,26 %
07.06.2017 07:26 12,2 C 12,8 C 11,7 C 81 % 0 lf 1007,1 hPa 0,0 l/m 0 min 0 min 92 W/m 31,4 km/h (5 Bft) 87,23 %
07.06.2017 07:28 12,2 C 13,3 C 11,7 C 81 % 0 lf 1007,1 hPa 0,0 l/m 0 min 0 min 109 W/m 33,5 km/h (5 Bft) 80,85 %
07.06.2017 07:30 12,2 C 13,3 C 11,7 C 81 % 0 lf 1007,1 hPa 0,0 l/m 0 min 0 min 83 W/m 37,7 km/h (5 Bft) 91,49 %
07.06.2017 07:32 12,3 C 12,8 C 11,7 C 81 % 0 lf 1007,4 hPa 0,0 l/m 0 min 0 min 96 W/m 50,2 km/h (7 Bft) 90,57 %
07.06.2017 07:34 12,3 C 12,8 C 11,7 C 80 % 0 lf 1007,1 hPa 0,0 l/m 0 min 0 min 93 W/m 39,7 km/h (6 Bft) 89,36 %
07.06.2017 07:36 12,3 C 12,8 C 11,7 C 80 % 0 lf 1007,1 hPa 0,0 l/m 0 min 0 min 109 W/m 29,3 km/h (5 Bft) 76,32 %
07.06.2017 07:38 12,3 C 12,8 C 11,1 C 80 % 0 lf 1007,1 hPa 0,0 l/m 0 min 0 min 127 W/m 46,0 km/h (6 Bft) 79,31 %
07.06.2017 07:40 12,3 C 12,8 C 11,7 C 80 % 0 lf 1007,1 hPa 0,0 l/m 2 min 0 min 230 W/m 43,9 km/h (6 Bft) 82,86 %
07.06.2017 07:42 12,3 C 13,3 C 11,7 C 80 % 0 lf 1007,2 hPa 0,0 l/m 2 min 0 min 247 W/m 29,3 km/h (5 Bft) 77,97 %
07.06.2017 07:44 12,4 C 13,3 C 11,7 C 80 % 0 lf 1007,2 hPa 0,0 l/m 2 min 0 min 247 W/m 52,3 km/h (7 Bft) 85,71 %
07.06.2017 07:46 12,4 C 13,3 C 12,2 C 80 % 0 lf 1007,3 hPa 0,0 l/m 2 min 0 min 174 W/m 27,2 km/h (4 Bft) 87,23 %
07.06.2017 07:48 12,4 C 13,9 C 12,2 C 80 % 0 lf 1007,2 hPa 0,0 l/m 2 min 0 min 193 W/m 46,0 km/h (6 Bft) 86,21 %
07.06.2017 07:50 12,5 C 13,3 C 12,2 C 80 % 0 lf 1007,3 hPa 0,0 l/m 0 min 0 min 152 W/m 46,0 km/h (6 Bft) 80,85 %
07.06.2017 07:52 12,5 C 13,9 C 12,2 C 79 % 0 lf 1007,3 hPa 0,0 l/m 0 min 0 min 133 W/m 35,6 km/h (5 Bft) 94,44 %
07.06.2017 07:54 12,6 C 13,3 C 12,2 C 79 % 0 lf 1007,4 hPa 0,0 l/m 0 min 0 min 101 W/m 39,7 km/h (6 Bft) 95,74 %
07.06.2017 07:56 12,6 C 13,9 C 12,2 C 79 % 0 lf 1007,3 hPa 0,0 l/m 0 min 0 min 150 W/m 25,1 km/h (4 Bft) 87,23 %
07.06.2017 07:58 12,6 C 13,9 C 12,2 C 79 % 0 lf 1007,3 hPa 0,0 l/m 0 min 0 min 152 W/m 20,9 km/h (4 Bft) 87,23 %
07.06.2017 08:00 12,6 C 13,9 C 12,2 C 80 % 0 lf 1007,3 hPa 0,0 l/m 0 min 0 min 170 W/m 27,2 km/h (4 Bft) 85,11 %
07.06.2017 08:02 12,7 C 13,9 C 12,8 C 80 % 0 lf 1007,4 hPa 0,0 l/m 0 min 0 min 143 W/m 37,7 km/h (5 Bft) 84,78 %
07.06.2017 08:04 12,7 C 13,9 C 12,8 C 79 % 0 lf 1007,4 hPa 0,0 l/m 0 min 0 min 131 W/m 29,3 km/h (5 Bft) 91,49 %
07.06.2017 08:06 12,7 C 13,9 C 12,8 C 79 % 0 lf 1007,3 hPa 0,0 l/m 0 min 0 min 143 W/m 25,1 km/h (4 Bft) 94,00 %
07.06.2017 08:08 12,7 C 13,9 C 12,8 C 80 % 0 lf 1007,3 hPa 0,0 l/m 0 min 0 min 185 W/m 27,2 km/h (4 Bft) 89,36 %
07.06.2017 08:10 12,7 C 13,9 C 12,8 C 79 % 0 lf 1007,4 hPa 0,0 l/m 0 min 0 min 142 W/m 41,8 km/h (6 Bft) 80,85 %
07.06.2017 08:12 12,8 C 13,9 C 12,8 C 79 % 0 lf 1007,4 hPa 0,0 l/m 0 min 0 min 134 W/m 31,4 km/h (5 Bft) 85,11 %
07.06.2017 08:14 12,8 C 13,9 C 12,8 C 79 % 0 lf 1007,5 hPa 0,0 l/m 0 min 0 min 108 W/m 37,7 km/h (5 Bft) 76,09 %
07.06.2017 08:16 12,8 C 13,9 C 12,8 C 79 % 0 lf 1007,5 hPa 0,0 l/m 0 min 0 min 137 W/m 29,3 km/h (5 Bft) 87,23 %
07.06.2017 08:18 12,8 C 13,9 C 12,8 C 79 % 0 lf 1007,6 hPa 0,0 l/m 0 min 0 min 183 W/m 39,7 km/h (6 Bft) 91,49 %
07.06.2017 08:20 12,8 C 13,9 C 12,8 C 79 % 0 lf 1007,6 hPa 0,0 l/m 0 min 0 min 131 W/m 33,5 km/h (5 Bft) 89,36 %
07.06.2017 08:22 12,8 C 13,9 C 12,8 C 79 % 0 lf 1007,6 hPa 0,0 l/m 0 min 0 min 109 W/m 33,5 km/h (5 Bft) 87,23 %
07.06.2017 08:24 12,8 C 15,0 C 12,8 C 78 % 0 lf 1007,6 hPa 0,0 l/m 0 min 0 min 171 W/m 48,1 km/h (6 Bft) 80,43 %
07.06.2017 08:26 12,9 C 15,6 C 12,8 C 78 % 0 lf 1007,6 hPa 0,0 l/m 0 min 0 min 174 W/m 39,7 km/h (6 Bft) 95,74 %
07.06.2017 08:28 12,9 C 14,4 C 12,8 C 79 % 0 lf 1007,7 hPa 0,0 l/m 0 min 0 min 141 W/m 35,6 km/h (5 Bft) 95,74 %
07.06.2017 08:30 12,9 C 15,6 C 12,8 C 78 % 0 lf 1007,6 hPa 0,0 l/m 0 min 0 min 160 W/m 48,1 km/h (6 Bft) 89,36 %
07.06.2017 08:32 13,0 C 16,1 C 12,8 C 78 % 0 lf 1007,7 hPa 0,0 l/m 2 min 0 min 335 W/m 37,7 km/h (5 Bft) 95,83 %
07.06.2017 08:34 13,1 C 16,7 C 13,3 C 78 % 0 lf 1007,6 hPa 0,0 l/m 2 min 0 min 229 W/m 39,7 km/h (6 Bft) 95,74 %
07.06.2017 08:36 13,1 C 16,1 C 12,8 C 78 % 0 lf 1007,7 hPa 0,0 l/m 0 min 0 min 172 W/m 37,7 km/h (5 Bft) 97,83 %
07.06.2017 08:38 13,2 C 15,6 C 12,8 C 78 % 0 lf 1007,7 hPa 0,0 l/m 0 min 0 min 189 W/m 39,7 km/h (6 Bft) 97,87 %
07.06.2017 08:40 13,2 C 15,6 C 12,8 C 77 % 0 lf 1007,7 hPa 0,0 l/m 0 min 0 min 194 W/m 54,4 km/h (7 Bft) 97,87 %
07.06.2017 08:42 13,2 C 15,6 C 12,8 C 77 % 0 lf 1007,7 hPa 0,0 l/m 0 min 0 min 198 W/m 43,9 km/h (6 Bft) 97,87 %
07.06.2017 08:44 13,2 C 16,7 C 12,8 C 77 % 0 lf 1007,6 hPa 0,0 l/m 2 min 0 min 236 W/m 39,7 km/h (6 Bft) 95,74 %
07.06.2017 08:46 13,3 C 16,7 C 12,8 C 77 % 0 lf 1007,7 hPa 0,0 l/m 2 min 0 min 357 W/m 41,8 km/h (6 Bft) 100,00 %
07.06.2017 08:48 13,3 C 18,3 C 12,8 C 77 % 0 lf 1007,7 hPa 0,0 l/m 2 min 0 min 378 W/m 41,8 km/h (6 Bft) 95,65 %
07.06.2017 08:50 13,4 C 18,3 C 13,3 C 77 % 0 lf 1007,7 hPa 0,0 l/m 2 min 0 min 474 W/m 39,7 km/h (6 Bft) 97,87 %
07.06.2017 08:52 13,6 C 19,4 C 13,9 C 77 % 0 lf 1007,6 hPa 0,0 l/m 2 min 0 min 448 W/m 29,3 km/h (5 Bft) 80,85 %
07.06.2017 08:54 13,7 C 19,4 C 13,9 C 77 % 0 lf 1007,7 hPa 0,0 l/m 2 min 0 min 380 W/m 29,3 km/h (5 Bft) 89,36 %
07.06.2017 08:56 13,8 C 17,8 C 13,9 C 77 % 0 lf 1007,7 hPa 0,0 l/m 2 min 0 min 262 W/m 39,7 km/h (6 Bft) 95,74 %
07.06.2017 08:58 13,8 C 17,2 C 13,9 C 76 % 0 lf 1007,8 hPa 0,0 l/m 0 min 0 min 207 W/m 43,9 km/h (6 Bft) 91,49 %
07.06.2017 09:00 13,8 C 16,1 C 13,3 C 76 % 0 lf 1007,7 hPa 0,0 l/m 0 min 0 min 157 W/m 35,6 km/h (5 Bft) 89,13 %
07.06.2017 09:02 13,8 C 15,6 C 13,3 C 75 % 0 lf 1007,7 hPa 0,0 l/m 0 min 0 min 145 W/m 41,8 km/h (6 Bft) 89,36 %
07.06.2017 09:04 13,8 C 16,7 C 13,9 C 75 % 0 lf 1007,8 hPa 0,0 l/m 0 min 0 min 229 W/m 54,4 km/h (7 Bft) 97,87 %
07.06.2017 09:06 13,9 C 17,2 C 13,9 C 76 % 0 lf 1007,7 hPa 0,0 l/m 2 min 0 min 261 W/m 33,5 km/h (5 Bft) 97,87 %
07.06.2017 09:08 13,9 C 17,8 C 13,9 C 75 % 0 lf 1008,0 hPa 0,0 l/m 2 min 0 min 327 W/m 46,0 km/h (6 Bft) 97,87 %
07.06.2017 09:10 14,0 C 18,3 C 13,9 C 75 % 0 lf 1007,9 hPa 0,0 l/m 2 min 0 min 409 W/m 52,3 km/h (7 Bft) 95,65 %
07.06.2017 09:12 14,1 C 18,3 C 13,9 C 75 % 0 lf 1008,1 hPa 0,0 l/m 2 min 0 min 519 W/m 43,9 km/h (6 Bft) 91,49 %
07.06.2017 09:14 14,2 C 17,8 C 13,9 C 75 % 0 lf 1007,9 hPa 0,0 l/m 2 min 0 min 473 W/m 64,9 km/h (8 Bft) 91,49 %
07.06.2017 09:16 14,2 C 16,1 C 13,9 C 74 % 0 lf 1008,0 hPa 0,0 l/m 0 min 0 min 188 W/m 48,1 km/h (6 Bft) 97,87 %
07.06.2017 09:18 14,2 C 16,7 C 13,9 C 74 % 0 lf 1008,0 hPa 0,0 l/m 0 min 0 min 201 W/m 54,4 km/h (7 Bft) 95,74 %
07.06.2017 09:20 14,2 C 17,8 C 13,9 C 74 % 0 lf 1008,0 hPa 0,0 l/m 2 min 0 min 282 W/m 48,1 km/h (6 Bft) 89,36 %
07.06.2017 09:22 14,2 C 16,7 C 14,4 C 74 % 0 lf 1008,1 hPa 0,0 l/m 0 min 0 min 252 W/m 39,7 km/h (6 Bft) 97,87 %
07.06.2017 09:24 14,2 C 17,2 C 15,0 C 74 % 0 lf 1008,1 hPa 0,0 l/m 0 min 0 min 271 W/m 39,7 km/h (6 Bft) 89,36 %
07.06.2017 09:26 14,2 C 17,8 C 15,0 C 74 % 0 lf 1008,2 hPa 0,0 l/m 2 min 0 min 322 W/m 48,1 km/h (6 Bft) 95,74 %
07.06.2017 09:28 14,2 C 16,7 C 15,0 C 74 % 0 lf 1008,2 hPa 0,0 l/m 2 min 0 min 344 W/m 48,1 km/h (6 Bft) 91,49 %
07.06.2017 09:30 14,2 C 16,1 C 14,4 C 74 % 0 lf 1008,2 hPa 0,0 l/m 0 min 0 min 260 W/m 41,8 km/h (6 Bft) 91,49 %
07.06.2017 09:32 14,2 C 15,6 C 14,4 C 74 % 0 lf 1008,4 hPa 0,0 l/m 0 min 0 min 223 W/m 41,8 km/h (6 Bft) 93,48 %
07.06.2017 09:34 14,2 C 15,6 C 14,4 C 74 % 0 lf 1008,5 hPa 0,0 l/m 0 min 0 min 224 W/m 43,9 km/h (6 Bft) 89,36 %
07.06.2017 09:36 14,2 C 16,7 C 14,4 C 74 % 0 lf 1008,2 hPa 0,0 l/m 0 min 0 min 252 W/m 35,6 km/h (5 Bft) 89,36 %
07.06.2017 09:38 14,2 C 18,3 C 15,0 C 74 % 0 lf 1008,2 hPa 0,0 l/m 2 min 0 min 360 W/m 31,4 km/h (5 Bft) 93,62 %
07.06.2017 09:40 14,2 C 17,8 C 15,0 C 74 % 0 lf 1008,2 hPa 0,0 l/m 2 min 0 min 554 W/m 29,3 km/h (5 Bft) 93,62 %
07.06.2017 09:42 14,3 C 16,7 C 15,0 C 74 % 0 lf 1008,5 hPa 0,0 l/m 0 min 0 min 201 W/m 41,8 km/h (6 Bft) 89,13 %
07.06.2017 09:44 14,3 C 16,1 C 15,0 C 73 % 0 lf 1008,5 hPa 0,0 l/m 0 min 0 min 190 W/m 35,6 km/h (5 Bft) 93,62 %
07.06.2017 09:46 14,3 C 17,8 C 15,0 C 73 % 0 lf 1008,3 hPa 0,0 l/m 0 min 0 min 149 W/m 46,0 km/h (6 Bft) 91,49 %
07.06.2017 09:48 14,3 C 18,9 C 15,0 C 73 % 0 lf 1008,3 hPa 0,0 l/m 0 min 0 min 149 W/m 35,6 km/h (5 Bft) 93,62 %
07.06.2017 09:50 14,5 C 19,4 C 15,6 C 74 % 0 lf 1008,3 hPa 0,0 l/m 2 min 0 min 456 W/m 29,3 km/h (5 Bft) 89,36 %
07.06.2017 09:52 14,6 C 18,9 C 15,6 C 73 % 0 lf 1008,3 hPa 0,0 l/m 2 min 0 min 423 W/m 29,3 km/h (5 Bft) 95,74 %
07.06.2017 09:54 14,6 C 17,2 C 15,0 C 73 % 0 lf 1008,7 hPa 0,0 l/m 2 min 0 min 319 W/m 50,2 km/h (7 Bft) 95,65 %
07.06.2017 09:56 14,6 C 17,2 C 15,0 C 73 % 0 lf 1008,3 hPa 0,0 l/m 0 min 0 min 209 W/m 48,1 km/h (6 Bft) 95,74 %
07.06.2017 09:58 14,7 C 17,2 C 15,6 C 73 % 0 lf 1008,4 hPa 0,0 l/m 0 min 0 min 226 W/m 29,3 km/h (5 Bft) 95,74 %
07.06.2017 10:00 14,7 C 17,8 C 16,1 C 73 % 0 lf 1008,4 hPa 0,0 l/m 0 min 0 min 286 W/m 50,2 km/h (7 Bft) 97,87 %
07.06.2017 10:02 14,7 C 18,9 C 17,2 C 72 % 0 lf 1008,4 hPa 0,0 l/m 2 min 0 min 438 W/m 46,0 km/h (6 Bft) 95,74 %
07.06.2017 10:04 14,7 C 20,6 C 18,3 C 72 % 0 lf 1008,5 hPa 0,0 l/m 2 min 0 min 526 W/m 31,4 km/h (5 Bft) 96,00 %
07.06.2017 10:06 14,9 C 20,0 C 18,9 C 72 % 0 lf 1008,3 hPa 0,0 l/m 2 min 0 min 675 W/m 60,7 km/h (7 Bft) 97,83 %
07.06.2017 10:08 15,0 C 21,1 C 20,0 C 72 % 0 lf 1008,4 hPa 0,0 l/m 2 min 0 min 737 W/m 46,0 km/h (6 Bft) 97,87 %
07.06.2017 10:10 15,1 C 22,2 C 20,0 C 71 % 0 lf 1008,5 hPa 0,0 l/m 2 min 0 min 763 W/m 43,9 km/h (6 Bft) 91,49 %
07.06.2017 10:12 15,2 C 21,7 C 20,0 C 71 % 0 lf 1008,5 hPa 0,0 l/m 2 min 0 min 759 W/m 35,6 km/h (5 Bft) 95,74 %
07.06.2017 10:14 15,3 C 20,6 C 19,4 C 71 % 0 lf 1008,6 hPa 0,0 l/m 2 min 0 min 759 W/m 52,3 km/h (7 Bft) 93,62 %
07.06.2017 10:16 15,4 C 20,0 C 18,3 C 70 % 0 lf 1008,7 hPa 0,0 l/m 2 min 0 min 518 W/m 46,0 km/h (6 Bft) 87,23 %
07.06.2017 10:18 15,4 C 20,6 C 19,4 C 70 % 0 lf 1008,7 hPa 0,0 l/m 2 min 0 min 428 W/m 35,6 km/h (5 Bft) 89,13 %
07.06.2017 10:20 15,6 C 20,6 C 19,4 C 70 % 0 lf 1008,7 hPa 0,0 l/m 2 min 0 min 705 W/m 35,6 km/h (5 Bft) 93,62 %
07.06.2017 10:22 15,6 C 20,0 C 18,9 C 69 % 0 lf 1008,7 hPa 0,0 l/m 2 min 0 min 695 W/m 56,5 km/h (7 Bft) 95,74 %
07.06.2017 10:24 15,6 C 19,4 C 18,3 C 69 % 0 lf 1008,7 hPa 0,0 l/m 2 min 0 min 648 W/m 41,8 km/h (6 Bft) 97,14 %
07.06.2017 10:26 15,6 C 18,3 C 17,8 C 69 % 0 lf 1008,7 hPa 0,0 l/m 0 min 0 min 333 W/m 54,4 km/h (7 Bft) 93,22 %
07.06.2017 10:28 15,5 C 17,8 C 16,7 C 69 % 0 lf 1008,5 hPa 0,0 l/m 0 min 0 min 269 W/m 48,1 km/h (6 Bft) 97,14 %
07.06.2017 10:30 15,4 C 18,9 C 18,3 C 69 % 0 lf 1008,6 hPa 0,0 l/m 0 min 0 min 308 W/m 35,6 km/h (5 Bft) 98,28 %
07.06.2017 10:32 15,4 C 18,3 C 17,2 C 69 % 0 lf 1008,6 hPa 0,0 l/m 0 min 0 min 264 W/m 39,7 km/h (6 Bft) 97,14 %
07.06.2017 10:34 15,4 C 18,3 C 17,8 C 69 % 0 lf 1008,6 hPa 0,0 l/m 0 min 0 min 251 W/m 35,6 km/h (5 Bft) 95,74 %
07.06.2017 10:36 15,3 C 17,8 C 17,2 C 70 % 0 lf 1008,6 hPa 0,0 l/m 0 min 0 min 253 W/m 43,9 km/h (6 Bft) 96,30 %
07.06.2017 10:38 15,3 C 18,3 C 16,7 C 70 % 0 lf 1008,6 hPa 0,0 l/m 0 min 0 min 336 W/m 39,7 km/h (6 Bft) 95,74 %
07.06.2017 10:40 15,2 C 19,4 C 17,8 C 70 % 0 lf 1008,7 hPa 0,0 l/m 0 min 0 min 288 W/m 43,9 km/h (6 Bft) 97,87 %
07.06.2017 10:43 15,3 C 18,3 C 17,8 C 70 % 0 lf 1008,7 hPa 0,0 l/m 0 min 0 min 288 W/m 46,0 km/h (6 Bft) 88,57 %
07.06.2017 10:44 15,3 C 18,9 C 17,8 C 71 % 0 lf 1008,7 hPa 0,0 l/m 0 min 0 min 283 W/m 43,9 km/h (6 Bft) 95,65 %
07.06.2017 10:46 15,3 C 18,9 C 18,3 C 70 % 0 lf 1008,7 hPa 0,0 l/m 0 min 0 min 283 W/m 43,9 km/h (6 Bft) 95,74 %
07.06.2017 10:48 15,4 C 18,3 C 17,8 C 69 % 0 lf 1008,6 hPa 0,0 l/m 0 min 0 min 261 W/m 48,1 km/h (6 Bft) 97,87 %
07.06.2017 10:50 15,3 C 17,2 C 16,7 C 69 % 0 lf 1008,7 hPa 0,0 l/m 0 min 0 min 184 W/m 52,3 km/h (7 Bft) 95,74 %
07.06.2017 10:52 15,3 C 19,4 C 17,8 C 69 % 0 lf 1008,6 hPa 0,0 l/m 0 min 0 min 176 W/m 37,7 km/h (5 Bft) 97,87 %
07.06.2017 10:54 15,4 C 20,6 C 18,9 C 70 % 0 lf 1008,6 hPa 0,0 l/m 0 min 0 min 176 W/m 41,8 km/h (6 Bft) 93,62 %
07.06.2017 10:56 15,6 C 21,1 C 19,4 C 70 % 0 lf 1008,7 hPa 0,0 l/m 2 min 0 min 725 W/m 41,8 km/h (6 Bft) 95,65 %
07.06.2017 10:58 15,6 C 19,4 C 18,3 C 69 % 0 lf 1008,7 hPa 0,0 l/m 2 min 0 min 789 W/m 41,8 km/h (6 Bft) 95,74 %
07.06.2017 11:00 15,7 C 18,3 C 17,2 C 69 % 0 lf 1008,7 hPa 0,0 l/m 0 min 0 min 350 W/m 46,0 km/h (6 Bft) 97,87 %
07.06.2017 11:02 15,6 C 17,2 C 16,7 C 68 % 0 lf 1008,6 hPa 0,0 l/m 0 min 0 min 230 W/m 46,0 km/h (6 Bft) 90,70 %
07.06.2017 11:04 15,5 C 16,7 C 16,1 C 67 % 0 lf 1008,7 hPa 0,0 l/m 0 min 0 min 205 W/m 43,9 km/h (6 Bft) 93,62 %
07.06.2017 11:06 15,4 C 16,7 C 16,1 C 68 % 0 lf 1008,7 hPa 0,0 l/m 0 min 0 min 224 W/m 37,7 km/h (5 Bft) 94,44 %
07.06.2017 11:08 15,4 C 16,7 C 16,7 C 69 % 0 lf 1008,7 hPa 0,0 l/m 0 min 0 min 276 W/m 41,8 km/h (6 Bft) 100,00 %
07.06.2017 11:10 15,4 C 17,2 C 16,7 C 69 % 0 lf 1008,6 hPa 0,0 l/m 0 min 0 min 303 W/m 52,3 km/h (7 Bft) 97,87 %
07.06.2017 11:12 15,4 C 17,2 C 17,2 C 68 % 0 lf 1008,7 hPa 0,0 l/m 0 min 0 min 366 W/m 46,0 km/h (6 Bft) 100,00 %
07.06.2017 11:14 15,4 C 17,2 C 17,2 C 68 % 0 lf 1008,7 hPa 0,0 l/m 0 min 0 min 361 W/m 41,8 km/h (6 Bft) 100,00 %
07.06.2017 11:16 15,5 C 18,9 C 18,9 C 68 % 0 lf 1008,7 hPa 0,0 l/m 2 min 0 min 386 W/m 52,3 km/h (7 Bft) 95,74 %
07.06.2017 11:18 15,6 C 20,0 C 18,9 C 68 % 0 lf 1008,7 hPa 0,0 l/m 2 min 0 min 570 W/m 43,9 km/h (6 Bft) 100,00 %
07.06.2017 11:20 15,8 C 19,4 C 18,9 C 68 % 0 lf 1008,7 hPa 0,0 l/m 2 min 0 min 552 W/m 48,1 km/h (6 Bft) 95,65 %
07.06.2017 11:22 15,8 C 18,3 C 17,8 C 66 % 0 lf 1008,7 hPa 0,0 l/m 0 min 0 min 332 W/m 48,1 km/h (6 Bft) 100,00 %
07.06.2017 11:24 15,8 C 17,2 C 16,7 C 66 % 0 lf 1009,0 hPa 0,0 l/m 0 min 0 min 216 W/m 48,1 km/h (6 Bft) 97,87 %
07.06.2017 11:26 15,7 C 17,2 C 16,7 C 66 % 0 lf 1008,7 hPa 0,0 l/m 0 min 0 min 263 W/m 41,8 km/h (6 Bft) 100,00 %
07.06.2017 11:28 15,7 C 17,8 C 17,2 C 67 % 0 lf 1008,8 hPa 0,0 l/m 0 min 0 min 311 W/m 48,1 km/h (6 Bft) 97,87 %
07.06.2017 11:30 15,7 C 17,8 C 17,2 C 67 % 0 lf 1009,0 hPa 0,0 l/m 0 min 0 min 280 W/m 41,8 km/h (6 Bft) 97,87 %
07.06.2017 11:32 15,7 C 17,2 C 16,7 C 66 % 0 lf 1008,8 hPa 0,0 l/m 0 min 0 min 196 W/m 35,6 km/h (5 Bft) 95,74 %
07.06.2017 11:34 15,7 C 16,7 C 16,1 C 66 % 1 lf 1009,0 hPa 0,0 l/m 0 min 0 min 175 W/m 54,4 km/h (7 Bft) 93,62 %
07.06.2017 11:36 15,7 C 16,1 C 16,1 C 66 % 0 lf 1008,8 hPa 0,0 l/m 0 min 0 min 158 W/m 64,9 km/h (8 Bft) 98,00 %
07.06.2017 11:38 15,6 C 16,1 C 15,6 C 66 % 0 lf 1009,0 hPa 0,0 l/m 0 min 0 min 206 W/m 43,9 km/h (6 Bft) 95,74 %
07.06.2017 11:40 15,6 C 16,7 C 15,6 C 66 % 0 lf 1008,9 hPa 0,0 l/m 0 min 0 min 199 W/m 31,4 km/h (5 Bft) 97,87 %
07.06.2017 11:42 15,5 C 16,7 C 15,6 C 66 % 1 lf 1008,9 hPa 0,0 l/m 0 min 0 min 238 W/m 43,9 km/h (6 Bft) 97,14 %
07.06.2017 11:44 15,5 C 16,7 C 15,6 C 66 % 0 lf 1009,1 hPa 0,0 l/m 0 min 0 min 200 W/m 48,1 km/h (6 Bft) 97,87 %
07.06.2017 11:46 15,4 C 16,1 C 15,6 C 66 % 0 lf 1008,9 hPa 0,0 l/m 0 min 0 min 182 W/m 46,0 km/h (6 Bft) 97,87 %
07.06.2017 11:48 15,4 C 15,6 C 15,6 C 67 % 15 lf 1009,1 hPa 0,0 l/m 0 min 0 min 158 W/m 41,8 km/h (6 Bft) 97,87 %
07.06.2017 11:50 15,4 C 13,9 C 12,8 C 68 % 15 lf 1009,1 hPa 0,0 l/m 0 min 2 min 121 W/m 43,9 km/h (6 Bft) 98,28 %
07.06.2017 11:52 15,3 C 13,9 C 12,2 C 70 % 15 lf 1009,2 hPa 0,0 l/m 0 min 2 min 101 W/m 31,4 km/h (5 Bft) 94,44 %
07.06.2017 11:54 15,2 C 13,9 C 11,7 C 72 % 15 lf 1009,4 hPa 0,0 l/m 0 min 2 min 126 W/m 33,5 km/h (5 Bft) 91,30 %
07.06.2017 11:56 15,1 C 13,3 C 11,7 C 73 % 15 lf 1009,3 hPa 0,0 l/m 0 min 2 min 146 W/m 35,6 km/h (5 Bft) 97,87 %
07.06.2017 11:58 14,9 C 12,8 C 11,1 C 74 % 15 lf 1009,3 hPa 0,0 l/m 0 min 2 min 132 W/m 27,2 km/h (4 Bft) 95,74 %
07.06.2017 12:00 14,8 C 12,8 C 11,1 C 75 % 15 lf 1009,4 hPa 0,0 l/m 0 min 2 min 104 W/m 29,3 km/h (5 Bft) 95,74 %
07.06.2017 12:02 14,7 C 12,8 C 11,1 C 76 % 15 lf 1009,4 hPa 0,0 l/m 0 min 2 min 114 W/m 25,1 km/h (4 Bft) 91,49 %
07.06.2017 12:04 14,6 C 12,8 C 11,1 C 77 % 15 lf 1009,6 hPa 0,0 l/m 0 min 2 min 109 W/m 16,7 km/h (3 Bft) 95,74 %
07.06.2017 12:06 14,6 C 13,3 C 11,7 C 77 % 15 lf 1009,6 hPa 0,0 l/m 0 min 0 min 117 W/m 20,9 km/h (4 Bft) 97,83 %
07.06.2017 12:08 14,5 C 13,9 C 11,7 C 78 % 15 lf 1009,5 hPa 0,2 l/m 0 min 2 min 163 W/m 14,6 km/h (3 Bft) 100,00 %
07.06.2017 12:10 14,4 C 13,9 C 12,2 C 79 % 15 lf 1009,5 hPa 0,0 l/m 0 min 2 min 250 W/m 18,8 km/h (3 Bft) 100,00 %
07.06.2017 12:12 14,3 C 15,6 C 13,3 C 80 % 15 lf 1009,7 hPa 0,0 l/m 0 min 0 min 296 W/m 16,7 km/h (3 Bft) 93,62 %
07.06.2017 12:14 14,3 C 16,7 C 13,9 C 81 % 15 lf 1009,5 hPa 0,0 l/m 0 min 0 min 371 W/m 27,2 km/h (4 Bft) 100,00 %
07.06.2017 12:16 14,3 C 16,7 C 13,9 C 80 % 15 lf 1009,6 hPa 0,0 l/m 0 min 0 min 331 W/m 29,3 km/h (5 Bft) 100,00 %
07.06.2017 12:18 14,4 C 16,7 C 13,3 C 80 % 15 lf 1009,7 hPa 0,0 l/m 0 min 0 min 271 W/m 23,0 km/h (4 Bft) 100,00 %
07.06.2017 12:20 14,4 C 16,7 C 13,9 C 80 % 15 lf 1009,6 hPa 0,0 l/m 0 min 0 min 255 W/m 12,6 km/h (3 Bft) 97,87 %
07.06.2017 12:22 14,4 C 17,2 C 13,9 C 80 % 10 lf 1009,6 hPa 0,0 l/m 0 min 0 min 266 W/m 16,7 km/h (3 Bft) 97,87 %
07.06.2017 12:24 14,5 C 17,2 C 13,9 C 79 % 0 lf 1009,7 hPa 0,0 l/m 0 min 0 min 318 W/m 23,0 km/h (4 Bft) 91,49 %
07.06.2017 12:26 14,7 C 17,8 C 14,4 C 78 % 0 lf 1009,8 hPa 0,0 l/m 0 min 0 min 364 W/m 35,6 km/h (5 Bft) 100,00 %
07.06.2017 12:28 14,8 C 18,3 C 14,4 C 76 % 0 lf 1009,7 hPa 0,0 l/m 0 min 0 min 399 W/m 35,6 km/h (5 Bft) 95,65 %
07.06.2017 12:30 14,9 C 18,9 C 15,6 C 76 % 0 lf 1009,8 hPa 0,0 l/m 0 min 0 min 393 W/m 18,8 km/h (3 Bft) 97,87 %
07.06.2017 12:32 15,1 C 18,9 C 16,1 C 75 % 0 lf 1009,7 hPa 0,0 l/m 0 min 0 min 387 W/m 27,2 km/h (4 Bft) 95,74 %
07.06.2017 12:34 15,2 C 18,3 C 16,7 C 74 % 0 lf 1009,8 hPa 0,0 l/m 0 min 0 min 402 W/m 43,9 km/h (6 Bft) 95,74 %
07.06.2017 12:36 15,3 C 18,3 C 17,2 C 72 % 0 lf 1009,8 hPa 0,0 l/m 2 min 0 min 417 W/m 46,0 km/h (6 Bft) 97,87 %
07.06.2017 12:38 15,4 C 18,3 C 17,2 C 72 % 0 lf 1009,8 hPa 0,0 l/m 2 min 0 min 422 W/m 50,2 km/h (7 Bft) 97,87 %
07.06.2017 12:40 15,5 C 17,8 C 16,7 C 70 % 0 lf 1009,8 hPa 0,0 l/m 0 min 0 min 297 W/m 46,0 km/h (6 Bft) 95,65 %
07.06.2017 12:42 15,6 C 18,3 C 17,2 C 69 % 0 lf 1009,8 hPa 0,0 l/m 0 min 0 min 311 W/m 35,6 km/h (5 Bft) 100,00 %
07.06.2017 12:44 15,7 C 17,8 C 16,7 C 69 % 0 lf 1009,9 hPa 0,0 l/m 0 min 0 min 221 W/m 31,4 km/h (5 Bft) 95,74 %
07.06.2017 12:46 15,7 C 17,2 C 16,1 C 70 % 2 lf 1010,0 hPa 0,0 l/m 0 min 2 min 121 W/m 39,7 km/h (6 Bft) 91,49 %
07.06.2017 12:48 15,7 C 16,7 C 14,4 C 71 % 12 lf 1010,0 hPa 0,0 l/m 0 min 2 min 114 W/m 43,9 km/h (6 Bft) 89,36 %
07.06.2017 12:50 15,6 C 15,6 C 14,4 C 71 % 0 lf 1010,3 hPa 0,0 l/m 0 min 2 min 171 W/m 54,4 km/h (7 Bft) 93,62 %
07.06.2017 12:52 15,4 C 16,1 C 15,0 C 71 % 0 lf 1010,1 hPa 0,0 l/m 0 min 2 min 236 W/m 35,6 km/h (5 Bft) 86,96 %
07.06.2017 12:54 15,4 C 16,1 C 15,6 C 71 % 2 lf 1010,0 hPa 0,0 l/m 0 min 0 min 328 W/m 62,8 km/h (8 Bft) 93,62 %
07.06.2017 12:56 15,3 C 16,1 C 15,0 C 71 % 1 lf 1010,5 hPa 0,0 l/m 0 min 2 min 249 W/m 62,8 km/h (8 Bft) 91,49 %
07.06.2017 12:58 15,2 C 15,6 C 14,4 C 72 % 15 lf 1010,4 hPa 0,0 l/m 0 min 2 min 214 W/m 56,5 km/h (7 Bft) 97,87 %
07.06.2017 13:00 15,1 C 15,0 C 13,3 C 73 % 15 lf 1010,2 hPa 0,0 l/m 0 min 2 min 326 W/m 43,9 km/h (6 Bft) 91,49 %
07.06.2017 13:02 14,9 C 16,1 C 14,4 C 74 % 0 lf 1010,3 hPa 0,0 l/m 2 min 2 min 442 W/m 48,1 km/h (6 Bft) 86,27 %
07.06.2017 13:04 14,9 C 19,4 C 17,2 C 76 % 0 lf 1010,3 hPa 0,0 l/m 2 min 2 min 438 W/m 39,7 km/h (6 Bft) 91,49 %
07.06.2017 13:06 15,1 C 20,6 C 18,3 C 77 % 0 lf 1010,7 hPa 0,0 l/m 2 min 0 min 1008 W/m 35,6 km/h (5 Bft) 95,65 %
07.06.2017 13:08 15,3 C 21,7 C 19,4 C 77 % 0 lf 1010,5 hPa 0,0 l/m 2 min 0 min 601 W/m 37,7 km/h (5 Bft) 91,49 %
07.06.2017 13:10 15,5 C 23,3 C 20,6 C 76 % 0 lf 1010,5 hPa 0,0 l/m 2 min 0 min 895 W/m 39,7 km/h (6 Bft) 89,36 %
07.06.2017 13:12 15,8 C 24,4 C 21,1 C 77 % 0 lf 1010,2 hPa 0,0 l/m 2 min 0 min 917 W/m 31,4 km/h (5 Bft) 93,75 %
07.06.2017 13:14 16,0 C 22,8 C 20,6 C 73 % 0 lf 1010,3 hPa 0,0 l/m 2 min 0 min 884 W/m 37,7 km/h (5 Bft) 85,11 %
07.06.2017 13:16 16,2 C 23,3 C 20,0 C 73 % 0 lf 1010,2 hPa 0,0 l/m 2 min 0 min 876 W/m 41,8 km/h (6 Bft) 93,48 %
07.06.2017 13:18 16,4 C 22,8 C 19,4 C 72 % 0 lf 1010,3 hPa 0,0 l/m 2 min 0 min 890 W/m 39,7 km/h (6 Bft) 91,49 %
07.06.2017 13:20 16,6 C 23,3 C 19,4 C 72 % 0 lf 1010,4 hPa 0,0 l/m 2 min 0 min 1030 W/m 48,1 km/h (6 Bft) 93,62 %
07.06.2017 13:22 16,7 C 21,1 C 19,4 C 70 % 1 lf 1010,5 hPa 0,0 l/m 2 min 0 min 1090 W/m 48,1 km/h (6 Bft) 97,87 %
07.06.2017 13:24 16,8 C 18,9 C 17,8 C 69 % 15 lf 1010,6 hPa 0,0 l/m 0 min 0 min 172 W/m 35,6 km/h (5 Bft) 95,74 %
07.06.2017 13:26 16,6 C 13,9 C 12,8 C 72 % 15 lf 1010,8 hPa 0,0 l/m 0 min 2 min 147 W/m 52,3 km/h (7 Bft) 91,49 %
07.06.2017 13:28 16,2 C 12,8 C 12,2 C 75 % 15 lf 1010,7 hPa 0,4 l/m 0 min 2 min 183 W/m 54,4 km/h (7 Bft) 93,48 %
07.06.2017 13:30 15,9 C 12,8 C 12,8 C 76 % 15 lf 1010,7 hPa 0,0 l/m 0 min 2 min 250 W/m 43,9 km/h (6 Bft) 95,74 %
07.06.2017 13:32 15,7 C 14,4 C 13,9 C 79 % 15 lf 1010,8 hPa 0,0 l/m 2 min 2 min 448 W/m 35,6 km/h (5 Bft) 95,83 %
07.06.2017 13:34 15,5 C 15,6 C 15,0 C 80 % 15 lf 1010,7 hPa 0,0 l/m 2 min 0 min 686 W/m 29,3 km/h (5 Bft) 93,62 %
07.06.2017 13:36 15,4 C 15,6 C 14,4 C 81 % 15 lf 1010,7 hPa 0,0 l/m 2 min 0 min 634 W/m 31,4 km/h (5 Bft) 93,88 %
07.06.2017 13:38 15,4 C 16,7 C 15,0 C 83 % 15 lf 1010,7 hPa 0,0 l/m 2 min 0 min 425 W/m 27,2 km/h (4 Bft) 91,49 %
07.06.2017 13:40 15,4 C 17,2 C 14,4 C 83 % 15 lf 1010,6 hPa 0,0 l/m 2 min 0 min 425 W/m 31,4 km/h (5 Bft) 89,36 %
07.06.2017 13:42 15,4 C 17,8 C 15,0 C 84 % 15 lf 1010,6 hPa 0,0 l/m 2 min 0 min 425 W/m 35,6 km/h (5 Bft) 91,49 %
07.06.2017 13:44 15,5 C 17,8 C 15,0 C 84 % 15 lf 1010,7 hPa 0,0 l/m 2 min 0 min 769 W/m 31,4 km/h (5 Bft) 93,62 %
07.06.2017 13:46 15,5 C 17,2 C 14,4 C 84 % 15 lf 1010,5 hPa 0,0 l/m 2 min 0 min 860 W/m 46,0 km/h (6 Bft) 91,49 %
07.06.2017 13:48 15,6 C 18,3 C 14,4 C 83 % 15 lf 1010,6 hPa 0,0 l/m 2 min 0 min 860 W/m 23,0 km/h (4 Bft) 82,61 %
07.06.2017 13:50 15,7 C 20,0 C 15,0 C 83 % 15 lf 1010,6 hPa 0,0 l/m 2 min 0 min 856 W/m 27,2 km/h (4 Bft) 93,62 %
07.06.2017 13:52 15,9 C 22,2 C 15,6 C 84 % 15 lf 1010,7 hPa 0,0 l/m 2 min 0 min 848 W/m 27,2 km/h (4 Bft) 95,74 %
07.06.2017 13:54 15,9 C 22,8 C 15,0 C 84 % 15 lf 1010,6 hPa 0,0 l/m 2 min 0 min 857 W/m 33,5 km/h (5 Bft) 95,74 %
07.06.2017 13:56 16,1 C 22,8 C 15,0 C 82 % 15 lf 1010,5 hPa 0,0 l/m 2 min 0 min 863 W/m 29,3 km/h (5 Bft) 95,74 %
07.06.2017 13:58 16,2 C 24,4 C 15,6 C 82 % 15 lf 1010,6 hPa 0,0 l/m 2 min 0 min 873 W/m 23,0 km/h (4 Bft) 91,49 %
07.06.2017 14:00 16,3 C 23,3 C 15,6 C 81 % 15 lf 1010,6 hPa 0,0 l/m 2 min 0 min 946 W/m 31,4 km/h (5 Bft) 97,83 %
07.06.2017 14:02 16,4 C 20,6 C 15,0 C 79 % 10 lf 1010,5 hPa 0,0 l/m 2 min 0 min 714 W/m 41,8 km/h (6 Bft) 87,23 %
07.06.2017 14:04 16,4 C 19,4 C 14,4 C 77 % 0 lf 1010,6 hPa 0,0 l/m 0 min 0 min 298 W/m 39,7 km/h (6 Bft) 95,74 %
07.06.2017 14:06 16,5 C 21,1 C 16,7 C 77 % 0 lf 1010,6 hPa 0,0 l/m 2 min 0 min 912 W/m 46,0 km/h (6 Bft) 92,00 %
07.06.2017 14:08 16,6 C 21,1 C 16,1 C 76 % 0 lf 1010,6 hPa 0,0 l/m 2 min 0 min 886 W/m 39,7 km/h (6 Bft) 97,87 %
07.06.2017 14:10 16,7 C 22,2 C 17,8 C 76 % 0 lf 1010,5 hPa 0,0 l/m 2 min 0 min 476 W/m 35,6 km/h (5 Bft) 100,00 %
07.06.2017 14:12 16,9 C 21,1 C 16,1 C 76 % 0 lf 1010,3 hPa 0,0 l/m 0 min 0 min 403 W/m 41,8 km/h (6 Bft) 91,38 %
07.06.2017 14:14 16,9 C 19,4 C 15,0 C 74 % 0 lf 1010,4 hPa 0,0 l/m 0 min 0 min 183 W/m 35,6 km/h (5 Bft) 94,29 %
07.06.2017 14:16 16,9 C 18,9 C 15,0 C 74 % 2 lf 1010,6 hPa 0,0 l/m 0 min 0 min 112 W/m 27,2 km/h (4 Bft) 95,74 %
07.06.2017 14:18 16,9 C 15,6 C 13,3 C 74 % 15 lf 1010,8 hPa 0,2 l/m 0 min 2 min 98 W/m 39,7 km/h (6 Bft) 100,00 %
07.06.2017 14:20 16,7 C 14,4 C 12,8 C 75 % 15 lf 1010,7 hPa 0,4 l/m 0 min 2 min 124 W/m 27,2 km/h (4 Bft) 97,87 %
07.06.2017 14:22 16,6 C 15,0 C 13,9 C 77 % 15 lf 1010,6 hPa 0,0 l/m 0 min 2 min 185 W/m 33,5 km/h (5 Bft) 100,00 %
07.06.2017 14:24 16,4 C 14,4 C 13,9 C 77 % 15 lf 1010,6 hPa 0,0 l/m 0 min 2 min 186 W/m 37,7 km/h (5 Bft) 97,87 %
07.06.2017 14:26 16,2 C 16,1 C 15,6 C 77 % 15 lf 1010,6 hPa 0,0 l/m 0 min 2 min 312 W/m 43,9 km/h (6 Bft) 97,83 %
07.06.2017 14:28 16,2 C 17,8 C 16,7 C 78 % 15 lf 1010,7 hPa 0,0 l/m 2 min 0 min 951 W/m 35,6 km/h (5 Bft) 100,00 %
07.06.2017 14:30 16,3 C 17,8 C 16,1 C 79 % 15 lf 1010,7 hPa 0,0 l/m 2 min 0 min 900 W/m 29,3 km/h (5 Bft) 100,00 %
07.06.2017 14:32 16,2 C 17,8 C 15,0 C 78 % 15 lf 1010,7 hPa 0,0 l/m 0 min 0 min 354 W/m 35,6 km/h (5 Bft) 97,87 %
07.06.2017 14:34 16,2 C 17,2 C 13,9 C 76 % 15 lf 1010,7 hPa 0,0 l/m 0 min 0 min 209 W/m 46,0 km/h (6 Bft) 100,00 %
07.06.2017 14:36 16,1 C 16,7 C 13,3 C 74 % 15 lf 1011,1 hPa 0,0 l/m 0 min 2 min 231 W/m 64,9 km/h (8 Bft) 97,87 %
07.06.2017 14:38 15,9 C 16,1 C 12,8 C 73 % 15 lf 1011,1 hPa 0,0 l/m 0 min 0 min 279 W/m 52,3 km/h (7 Bft) 100,00 %
07.06.2017 14:40 15,8 C 17,8 C 13,9 C 73 % 15 lf 1011,1 hPa 0,0 l/m 0 min 0 min 339 W/m 31,4 km/h (5 Bft) 95,74 %
07.06.2017 14:42 15,8 C 17,8 C 13,9 C 73 % 15 lf 1011,1 hPa 0,0 l/m 2 min 0 min 416 W/m 29,3 km/h (5 Bft) 100,00 %
07.06.2017 14:44 15,8 C 18,3 C 13,9 C 74 % 9 lf 1011,0 hPa 0,0 l/m 0 min 0 min 411 W/m 29,3 km/h (5 Bft) 100,00 %
07.06.2017 14:46 15,8 C 18,9 C 15,0 C 74 % 0 lf 1011,1 hPa 0,0 l/m 2 min 0 min 477 W/m 27,2 km/h (4 Bft) 100,00 %
07.06.2017 14:48 15,8 C 19,4 C 15,0 C 75 % 0 lf 1011,1 hPa 0,0 l/m 2 min 0 min 536 W/m 37,7 km/h (5 Bft) 97,87 %
07.06.2017 14:50 15,9 C 19,4 C 15,0 C 75 % 0 lf 1011,1 hPa 0,0 l/m 2 min 0 min 419 W/m 25,1 km/h (4 Bft) 100,00 %
07.06.2017 14:52 15,9 C 19,4 C 15,6 C 76 % 0 lf 1011,1 hPa 0,0 l/m 0 min 0 min 387 W/m 25,1 km/h (4 Bft) 97,87 %
07.06.2017 14:54 16,1 C 18,3 C 14,4 C 74 % 0 lf 1011,2 hPa 0,0 l/m 0 min 0 min 301 W/m 29,3 km/h (5 Bft) 100,00 %
07.06.2017 14:56 16,1 C 17,2 C 13,9 C 74 % 15 lf 1011,2 hPa 0,0 l/m 0 min 2 min 208 W/m 41,8 km/h (6 Bft) 100,00 %
07.06.2017 14:58 16,0 C 16,1 C 13,3 C 74 % 15 lf 1011,4 hPa 0,0 l/m 0 min 2 min 250 W/m 35,6 km/h (5 Bft) 97,87 %
07.06.2017 15:00 15,9 C 16,7 C 14,4 C 76 % 15 lf 1011,2 hPa 0,0 l/m 2 min 2 min 549 W/m 37,7 km/h (5 Bft) 97,87 %
07.06.2017 15:02 15,9 C 18,9 C 16,1 C 76 % 15 lf 1011,2 hPa 0,0 l/m 2 min 2 min 900 W/m 37,7 km/h (5 Bft) 97,96 %
07.06.2017 15:04 16,1 C 20,6 C 17,8 C 78 % 8 lf 1011,3 hPa 0,0 l/m 2 min 2 min 874 W/m 31,4 km/h (5 Bft) 100,00 %
07.06.2017 15:06 16,2 C 21,7 C 18,3 C 78 % 0 lf 1011,3 hPa 0,0 l/m 2 min 0 min 862 W/m 25,1 km/h (4 Bft) 100,00 %
07.06.2017 15:08 16,3 C 21,7 C 17,2 C 77 % 0 lf 1011,3 hPa 0,0 l/m 2 min 0 min 817 W/m 29,3 km/h (5 Bft) 97,87 %
07.06.2017 15:10 16,4 C 19,4 C 15,6 C 76 % 0 lf 1011,4 hPa 0,0 l/m 0 min 0 min 288 W/m 41,8 km/h (6 Bft) 100,00 %
07.06.2017 15:12 16,4 C 18,9 C 15,0 C 74 % 0 lf 1011,5 hPa 0,0 l/m 0 min 2 min 275 W/m 33,5 km/h (5 Bft) 97,87 %
07.06.2017 15:14 16,4 C 18,3 C 15,6 C 74 % 1 lf 1011,5 hPa 0,0 l/m 0 min 0 min 276 W/m 23,0 km/h (4 Bft) 95,74 %
07.06.2017 15:16 16,4 C 18,3 C 16,1 C 75 % 0 lf 1011,6 hPa 0,0 l/m 0 min 2 min 245 W/m 27,2 km/h (4 Bft) 100,00 %
07.06.2017 15:18 16,4 C 17,2 C 16,1 C 74 % 1 lf 1011,6 hPa 0,0 l/m 0 min 0 min 240 W/m 48,1 km/h (6 Bft) 95,74 %
07.06.2017 15:20 16,2 C 16,7 C 15,6 C 73 % 1 lf 1011,6 hPa 0,0 l/m 0 min 2 min 218 W/m 52,3 km/h (7 Bft) 97,87 %
07.06.2017 15:22 15,9 C 15,6 C 15,0 C 73 % 4 lf 1011,6 hPa 0,0 l/m 0 min 2 min 195 W/m 43,9 km/h (6 Bft) 97,87 %
07.06.2017 15:24 15,7 C 15,6 C 14,4 C 74 % 0 lf 1011,7 hPa 0,0 l/m 0 min 0 min 227 W/m 41,8 km/h (6 Bft) 97,87 %
07.06.2017 15:26 15,5 C 16,1 C 15,6 C 74 % 0 lf 1011,7 hPa 0,0 l/m 0 min 0 min 285 W/m 33,5 km/h (5 Bft) 93,48 %
07.06.2017 15:28 15,5 C 18,3 C 18,9 C 75 % 0 lf 1011,6 hPa 0,0 l/m 2 min 0 min 432 W/m 29,3 km/h (5 Bft) 97,87 %
07.06.2017 15:30 15,6 C 20,6 C 21,7 C 75 % 0 lf 1011,6 hPa 0,0 l/m 2 min 0 min 977 W/m 29,3 km/h (5 Bft) 95,74 %
07.06.2017 15:32 15,7 C 20,6 C 22,2 C 76 % 0 lf 1011,6 hPa 0,0 l/m 2 min 0 min 1028 W/m 27,2 km/h (4 Bft) 87,50 %
07.06.2017 15:34 15,8 C 20,0 C 20,6 C 75 % 0 lf 1011,6 hPa 0,0 l/m 2 min 0 min 596 W/m 35,6 km/h (5 Bft) 91,49 %
07.06.2017 15:36 15,9 C 19,4 C 20,0 C 74 % 0 lf 1011,7 hPa 0,0 l/m 2 min 0 min 398 W/m 39,7 km/h (6 Bft) 95,65 %
07.06.2017 15:38 16,1 C 18,9 C 19,4 C 74 % 0 lf 1011,7 hPa 0,0 l/m 2 min 0 min 394 W/m 33,5 km/h (5 Bft) 91,30 %
07.06.2017 15:40 16,1 C 18,9 C 19,4 C 74 % 0 lf 1011,6 hPa 0,0 l/m 0 min 0 min 368 W/m 31,4 km/h (5 Bft) 76,60 %
07.06.2017 15:42 16,2 C 18,9 C 18,9 C 74 % 0 lf 1011,6 hPa 0,0 l/m 0 min 0 min 335 W/m 23,0 km/h (4 Bft) 85,11 %
07.06.2017 15:44 16,3 C 18,9 C 18,3 C 74 % 0 lf 1011,8 hPa 0,0 l/m 0 min 0 min 307 W/m 31,4 km/h (5 Bft) 91,49 %
07.06.2017 15:46 16,3 C 18,3 C 17,8 C 72 % 0 lf 1011,9 hPa 0,0 l/m 0 min 0 min 290 W/m 33,5 km/h (5 Bft) 89,36 %
07.06.2017 15:48 16,3 C 18,3 C 17,2 C 72 % 0 lf 1011,7 hPa 0,0 l/m 0 min 0 min 233 W/m 20,9 km/h (4 Bft) 87,23 %
07.06.2017 15:50 16,3 C 18,3 C 17,2 C 73 % 0 lf 1011,9 hPa 0,0 l/m 0 min 0 min 202 W/m 35,6 km/h (5 Bft) 84,78 %
07.06.2017 15:52 16,3 C 17,8 C 16,7 C 71 % 0 lf 1011,9 hPa 0,0 l/m 0 min 0 min 179 W/m 29,3 km/h (5 Bft) 91,67 %
07.06.2017 15:54 16,3 C 17,8 C 16,7 C 72 % 0 lf 1012,0 hPa 0,0 l/m 0 min 0 min 161 W/m 27,2 km/h (4 Bft) 91,49 %
07.06.2017 15:56 16,3 C 17,2 C 16,1 C 71 % 0 lf 1012,0 hPa 0,0 l/m 0 min 0 min 144 W/m 23,0 km/h (4 Bft) 91,49 %
07.06.2017 15:58 16,2 C 17,2 C 16,1 C 72 % 0 lf 1012,0 hPa 0,0 l/m 0 min 0 min 138 W/m 29,3 km/h (5 Bft) 87,23 %
07.06.2017 16:00 16,2 C 16,7 C 15,6 C 71 % 0 lf 1012,3 hPa 0,0 l/m 0 min 0 min 138 W/m 43,9 km/h (6 Bft) 91,49 %
07.06.2017 16:02 16,1 C 16,7 C 15,6 C 70 % 0 lf 1012,1 hPa 0,0 l/m 0 min 0 min 142 W/m 39,7 km/h (6 Bft) 91,49 %
07.06.2017 16:04 16,0 C 16,7 C 15,6 C 70 % 0 lf 1012,0 hPa 0,0 l/m 0 min 0 min 149 W/m 31,4 km/h (5 Bft) 85,11 %
07.06.2017 16:06 16,0 C 16,7 C 15,6 C 70 % 0 lf 1011,9 hPa 0,0 l/m 0 min 0 min 181 W/m 25,1 km/h (4 Bft) 87,76 %
07.06.2017 16:08 15,9 C 16,7 C 16,1 C 70 % 0 lf 1012,1 hPa 0,0 l/m 0 min 0 min 175 W/m 29,3 km/h (5 Bft) 91,49 %
07.06.2017 16:10 15,9 C 16,7 C 15,6 C 70 % 0 lf 1012,2 hPa 0,0 l/m 0 min 0 min 149 W/m 39,7 km/h (6 Bft) 89,13 %
07.06.2017 16:12 15,9 C 16,7 C 15,6 C 70 % 0 lf 1012,3 hPa 0,0 l/m 0 min 0 min 129 W/m 33,5 km/h (5 Bft) 93,62 %
07.06.2017 16:14 15,9 C 16,7 C 15,6 C 70 % 0 lf 1012,2 hPa 0,0 l/m 0 min 0 min 140 W/m 33,5 km/h (5 Bft) 93,62 %
07.06.2017 16:16 15,9 C 16,7 C 15,6 C 71 % 0 lf 1012,2 hPa 0,0 l/m 0 min 0 min 164 W/m 25,1 km/h (4 Bft) 93,62 %
07.06.2017 16:18 15,9 C 17,2 C 16,1 C 71 % 0 lf 1012,3 hPa 0,0 l/m 0 min 0 min 191 W/m 27,2 km/h (4 Bft) 93,62 %
07.06.2017 16:20 15,9 C 17,2 C 16,1 C 71 % 0 lf 1012,3 hPa 0,0 l/m 0 min 0 min 240 W/m 18,8 km/h (3 Bft) 91,49 %
07.06.2017 16:22 16,0 C 18,3 C 17,8 C 72 % 0 lf 1012,3 hPa 0,0 l/m 0 min 0 min 281 W/m 27,2 km/h (4 Bft) 93,48 %
07.06.2017 16:24 16,1 C 18,3 C 18,3 C 72 % 0 lf 1012,3 hPa 0,0 l/m 2 min 0 min 358 W/m 23,0 km/h (4 Bft) 95,74 %
07.06.2017 16:26 16,2 C 18,3 C 18,3 C 72 % 0 lf 1012,3 hPa 0,0 l/m 0 min 0 min 267 W/m 27,2 km/h (4 Bft) 95,74 %
07.06.2017 16:28 16,2 C 18,3 C 17,8 C 71 % 0 lf 1012,4 hPa 0,0 l/m 0 min 0 min 210 W/m 25,1 km/h (4 Bft) 95,74 %
07.06.2017 16:30 16,3 C 18,3 C 17,2 C 72 % 0 lf 1012,4 hPa 0,0 l/m 0 min 0 min 189 W/m 20,9 km/h (4 Bft) 93,62 %
07.06.2017 16:32 16,3 C 17,8 C 16,7 C 70 % 0 lf 1012,6 hPa 0,0 l/m 0 min 2 min 178 W/m 43,9 km/h (6 Bft) 97,87 %
07.06.2017 16:34 16,3 C 17,2 C 16,7 C 70 % 0 lf 1012,6 hPa 0,0 l/m 0 min 0 min 177 W/m 35,6 km/h (5 Bft) 97,83 %
07.06.2017 16:36 16,3 C 17,2 C 16,1 C 71 % 0 lf 1012,6 hPa 0,0 l/m 0 min 0 min 165 W/m 41,8 km/h (6 Bft) 97,87 %
07.06.2017 16:38 16,3 C 17,2 C 16,1 C 71 % 0 lf 1012,7 hPa 0,0 l/m 0 min 0 min 158 W/m 31,4 km/h (5 Bft) 89,36 %
07.06.2017 16:40 16,3 C 17,2 C 16,1 C 71 % 0 lf 1012,7 hPa 0,0 l/m 0 min 0 min 167 W/m 39,7 km/h (6 Bft) 97,87 %
07.06.2017 16:43 16,2 C 17,2 C 16,1 C 72 % 0 lf 1012,6 hPa 0,0 l/m 0 min 0 min 164 W/m 31,4 km/h (5 Bft) 96,15 %
07.06.2017 16:44 16,2 C 17,2 C 16,7 C 72 % 0 lf 1012,6 hPa 0,0 l/m 0 min 0 min 174 W/m 16,7 km/h (3 Bft) 91,67 %
07.06.2017 16:46 16,3 C 18,3 C 20,0 C 73 % 0 lf 1012,6 hPa 0,0 l/m 2 min 0 min 681 W/m 20,9 km/h (4 Bft) 97,87 %
07.06.2017 16:48 16,3 C 19,4 C 21,1 C 73 % 0 lf 1012,5 hPa 0,0 l/m 2 min 0 min 831 W/m 37,7 km/h (5 Bft) 97,87 %
07.06.2017 16:50 16,5 C 18,9 C 20,0 C 73 % 0 lf 1012,5 hPa 0,0 l/m 2 min 0 min 833 W/m 35,6 km/h (5 Bft) 97,83 %
07.06.2017 16:52 16,6 C 18,3 C 19,4 C 71 % 0 lf 1012,6 hPa 0,0 l/m 2 min 0 min 833 W/m 27,2 km/h (4 Bft) 97,87 %
07.06.2017 16:54 16,7 C 18,3 C 18,3 C 71 % 0 lf 1012,5 hPa 0,0 l/m 0 min 0 min 226 W/m 27,2 km/h (4 Bft) 95,74 %
07.06.2017 16:56 16,7 C 17,8 C 17,8 C 71 % 0 lf 1012,5 hPa 0,0 l/m 0 min 0 min 214 W/m 25,1 km/h (4 Bft) 93,62 %
07.06.2017 16:58 16,7 C 17,2 C 17,2 C 69 % 0 lf 1012,7 hPa 0,0 l/m 0 min 0 min 157 W/m 33,5 km/h (5 Bft) 97,87 %
07.06.2017 17:00 16,7 C 17,2 C 16,7 C 69 % 0 lf 1012,7 hPa 0,0 l/m 0 min 0 min 119 W/m 37,7 km/h (5 Bft) 97,83 %
07.06.2017 17:02 16,6 C 16,7 C 16,1 C 69 % 0 lf 1012,7 hPa 0,0 l/m 0 min 0 min 94 W/m 29,3 km/h (5 Bft) 97,62 %
07.06.2017 17:04 16,5 C 16,7 C 15,6 C 69 % 0 lf 1012,7 hPa 0,0 l/m 0 min 2 min 89 W/m 31,4 km/h (5 Bft) 98,00 %
07.06.2017 17:06 16,5 C 16,7 C 15,6 C 69 % 0 lf 1012,7 hPa 0,0 l/m 0 min 0 min 109 W/m 25,1 km/h (4 Bft) 100,00 %
07.06.2017 17:08 16,4 C 16,7 C 15,6 C 70 % 0 lf 1012,7 hPa 0,0 l/m 0 min 0 min 129 W/m 25,1 km/h (4 Bft) 97,87 %
07.06.2017 17:10 16,4 C 16,7 C 15,6 C 70 % 0 lf 1012,8 hPa 0,0 l/m 0 min 0 min 113 W/m 25,1 km/h (4 Bft) 100,00 %
07.06.2017 17:12 16,3 C 16,7 C 15,6 C 70 % 0 lf 1012,8 hPa 0,0 l/m 0 min 0 min 103 W/m 33,5 km/h (5 Bft) 93,62 %
07.06.2017 17:14 16,3 C 16,7 C 15,6 C 70 % 0 lf 1012,8 hPa 0,0 l/m 0 min 0 min 117 W/m 16,7 km/h (3 Bft) 97,87 %
07.06.2017 17:16 16,3 C 17,2 C 16,1 C 70 % 0 lf 1012,8 hPa 0,0 l/m 0 min 0 min 150 W/m 20,9 km/h (4 Bft) 97,87 %
07.06.2017 17:18 16,3 C 17,8 C 17,2 C 71 % 0 lf 1012,9 hPa 0,0 l/m 0 min 0 min 233 W/m 20,9 km/h (4 Bft) 97,87 %
07.06.2017 17:20 16,5 C 18,9 C 18,3 C 71 % 0 lf 1012,8 hPa 0,0 l/m 2 min 0 min 769 W/m 27,2 km/h (4 Bft) 100,00 %
07.06.2017 17:22 16,6 C 18,9 C 17,8 C 71 % 0 lf 1012,9 hPa 0,0 l/m 2 min 0 min 728 W/m 35,6 km/h (5 Bft) 97,83 %
07.06.2017 17:24 16,7 C 18,3 C 17,2 C 69 % 0 lf 1013,0 hPa 0,0 l/m 0 min 0 min 173 W/m 37,7 km/h (5 Bft) 97,87 %
07.06.2017 17:26 16,8 C 17,8 C 17,2 C 68 % 0 lf 1013,0 hPa 0,0 l/m 0 min 0 min 160 W/m 33,5 km/h (5 Bft) 100,00 %
07.06.2017 17:28 16,8 C 17,8 C 16,7 C 66 % 0 lf 1012,9 hPa 0,0 l/m 0 min 0 min 164 W/m 43,9 km/h (6 Bft) 100,00 %
07.06.2017 17:30 16,8 C 17,8 C 16,7 C 66 % 0 lf 1012,9 hPa 0,0 l/m 0 min 0 min 152 W/m 31,4 km/h (5 Bft) 100,00 %
07.06.2017 17:32 16,8 C 17,8 C 16,7 C 66 % 0 lf 1013,0 hPa 0,0 l/m 0 min 0 min 137 W/m 37,7 km/h (5 Bft) 100,00 %
07.06.2017 17:34 16,8 C 17,8 C 16,1 C 66 % 0 lf 1013,0 hPa 0,0 l/m 0 min 0 min 139 W/m 31,4 km/h (5 Bft) 100,00 %
07.06.2017 17:36 16,8 C 17,8 C 16,7 C 66 % 0 lf 1012,9 hPa 0,0 l/m 0 min 0 min 200 W/m 27,2 km/h (4 Bft) 97,87 %
07.06.2017 17:38 16,8 C 18,3 C 17,2 C 67 % 0 lf 1012,9 hPa 0,0 l/m 2 min 0 min 388 W/m 35,6 km/h (5 Bft) 97,87 %
07.06.2017 17:40 16,9 C 18,9 C 17,8 C 66 % 0 lf 1012,8 hPa 0,0 l/m 2 min 0 min 279 W/m 23,0 km/h (4 Bft) 100,00 %
07.06.2017 17:42 17,1 C 19,4 C 18,3 C 67 % 0 lf 1012,8 hPa 0,0 l/m 2 min 0 min 628 W/m 20,9 km/h (4 Bft) 95,74 %
07.06.2017 17:44 17,2 C 19,4 C 17,8 C 67 % 0 lf 1012,8 hPa 0,0 l/m 2 min 0 min 515 W/m 27,2 km/h (4 Bft) 100,00 %
07.06.2017 17:46 17,3 C 18,9 C 17,8 C 67 % 0 lf 1012,9 hPa 0,0 l/m 0 min 0 min 227 W/m 23,0 km/h (4 Bft) 97,83 %
07.06.2017 17:48 17,3 C 18,3 C 17,2 C 67 % 0 lf 1012,8 hPa 0,0 l/m 0 min 0 min 142 W/m 31,4 km/h (5 Bft) 89,36 %
07.06.2017 17:50 17,4 C 18,3 C 17,2 C 65 % 0 lf 1012,8 hPa 0,0 l/m 0 min 0 min 138 W/m 35,6 km/h (5 Bft) 100,00 %
07.06.2017 17:52 17,4 C 18,3 C 17,2 C 66 % 0 lf 1012,7 hPa 0,0 l/m 0 min 0 min 138 W/m 23,0 km/h (4 Bft) 97,87 %
07.06.2017 17:54 17,4 C 18,3 C 17,2 C 65 % 0 lf 1012,7 hPa 0,0 l/m 0 min 0 min 112 W/m 20,9 km/h (4 Bft) 97,87 %
07.06.2017 17:56 17,4 C 17,8 C 16,7 C 65 % 0 lf 1012,9 hPa 0,0 l/m 0 min 0 min 80 W/m 23,0 km/h (4 Bft) 95,74 %
07.06.2017 17:58 17,4 C 17,8 C 16,7 C 65 % 2 lf 1012,9 hPa 0,0 l/m 0 min 0 min 67 W/m 25,1 km/h (4 Bft) 95,65 %
07.06.2017 18:00 17,4 C 17,8 C 16,1 C 65 % 0 lf 1012,9 hPa 0,0 l/m 0 min 2 min 93 W/m 27,2 km/h (4 Bft) 97,87 %
07.06.2017 18:02 17,4 C 18,3 C 16,7 C 65 % 0 lf 1012,9 hPa 0,0 l/m 0 min 0 min 202 W/m 27,2 km/h (4 Bft) 93,18 %
07.06.2017 18:04 17,4 C 18,9 C 17,8 C 65 % 0 lf 1013,0 hPa 0,0 l/m 2 min 0 min 590 W/m 37,7 km/h (5 Bft) 91,49 %
07.06.2017 18:06 17,5 C 18,9 C 17,8 C 65 % 0 lf 1013,0 hPa 0,0 l/m 2 min 0 min 534 W/m 33,5 km/h (5 Bft) 98,11 %
07.06.2017 18:10 17,6 C 18,9 C 17,2 C 64 % 0 lf 1013,0 hPa 0,0 l/m 0 min 0 min 175 W/m 31,4 km/h (5 Bft) 96,88 %
07.06.2017 18:12 17,7 C 18,9 C 17,2 C 63 % 0 lf 1013,0 hPa 0,0 l/m 0 min 0 min 154 W/m 27,2 km/h (4 Bft) 95,74 %
07.06.2017 18:14 17,7 C 18,9 C 17,8 C 63 % 0 lf 1013,0 hPa 0,0 l/m 0 min 0 min 205 W/m 16,7 km/h (3 Bft) 97,87 %
07.06.2017 18:16 17,7 C 19,4 C 17,8 C 63 % 0 lf 1013,0 hPa 0,0 l/m 2 min 0 min 265 W/m 25,1 km/h (4 Bft) 93,62 %
07.06.2017 18:18 17,7 C 19,4 C 18,3 C 63 % 0 lf 1013,1 hPa 0,0 l/m 2 min 0 min 525 W/m 27,2 km/h (4 Bft) 97,87 %
07.06.2017 18:20 17,8 C 19,4 C 17,8 C 63 % 0 lf 1013,0 hPa 0,0 l/m 2 min 0 min 239 W/m 27,2 km/h (4 Bft) 95,65 %
07.06.2017 18:22 17,8 C 19,4 C 17,8 C 62 % 0 lf 1013,2 hPa 0,0 l/m 2 min 0 min 491 W/m 29,3 km/h (5 Bft) 91,49 %
07.06.2017 18:24 17,9 C 19,4 C 17,8 C 63 % 0 lf 1013,0 hPa 0,0 l/m 2 min 0 min 466 W/m 33,5 km/h (5 Bft) 95,74 %
07.06.2017 18:26 17,9 C 18,9 C 17,2 C 62 % 0 lf 1012,9 hPa 0,0 l/m 2 min 0 min 443 W/m 33,5 km/h (5 Bft) 95,74 %
07.06.2017 18:28 18,0 C 18,9 C 17,2 C 62 % 0 lf 1013,0 hPa 0,0 l/m 2 min 0 min 436 W/m 29,3 km/h (5 Bft) 93,62 %
07.06.2017 18:30 18,0 C 18,3 C 16,7 C 61 % 0 lf 1013,0 hPa 0,0 l/m 0 min 0 min 202 W/m 37,7 km/h (5 Bft) 95,74 %
07.06.2017 18:32 18,0 C 18,9 C 16,7 C 61 % 0 lf 1013,0 hPa 0,0 l/m 0 min 0 min 134 W/m 31,4 km/h (5 Bft) 95,65 %
07.06.2017 18:34 18,0 C 18,9 C 17,2 C 61 % 0 lf 1013,0 hPa 0,0 l/m 2 min 0 min 334 W/m 31,4 km/h (5 Bft) 95,74 %
07.06.2017 18:36 18,1 C 18,9 C 17,2 C 61 % 0 lf 1013,0 hPa 0,0 l/m 2 min 0 min 459 W/m 23,0 km/h (4 Bft) 92,11 %
07.06.2017 18:38 18,1 C 18,9 C 17,2 C 61 % 0 lf 1013,1 hPa 0,0 l/m 2 min 0 min 412 W/m 25,1 km/h (4 Bft) 95,74 %
07.06.2017 18:40 18,1 C 18,9 C 17,2 C 60 % 0 lf 1013,1 hPa 0,0 l/m 2 min 0 min 389 W/m 37,7 km/h (5 Bft) 93,62 %
07.06.2017 18:42 18,2 C 18,9 C 17,2 C 59 % 0 lf 1013,2 hPa 0,0 l/m 0 min 0 min 202 W/m 27,2 km/h (4 Bft) 95,65 %
07.06.2017 18:44 18,2 C 18,9 C 17,2 C 60 % 0 lf 1013,2 hPa 0,0 l/m 0 min 0 min 127 W/m 29,3 km/h (5 Bft) 95,74 %
07.06.2017 18:46 18,2 C 18,9 C 17,2 C 59 % 0 lf 1013,2 hPa 0,0 l/m 0 min 0 min 121 W/m 35,6 km/h (5 Bft) 93,62 %
07.06.2017 18:48 18,2 C 18,9 C 17,2 C 59 % 0 lf 1013,2 hPa 0,0 l/m 0 min 0 min 121 W/m 31,4 km/h (5 Bft) 97,87 %
07.06.2017 18:50 18,2 C 18,9 C 17,8 C 58 % 0 lf 1013,2 hPa 0,0 l/m 0 min 0 min 137 W/m 27,2 km/h (4 Bft) 95,74 %
07.06.2017 18:52 18,2 C 18,9 C 17,2 C 58 % 0 lf 1013,3 hPa 0,0 l/m 0 min 0 min 142 W/m 37,7 km/h (5 Bft) 93,62 %
07.06.2017 18:54 18,2 C 18,9 C 17,2 C 59 % 0 lf 1013,4 hPa 0,0 l/m 0 min 0 min 126 W/m 23,0 km/h (4 Bft) 93,48 %
07.06.2017 18:56 18,1 C 18,9 C 17,2 C 58 % 0 lf 1013,3 hPa 0,0 l/m 0 min 0 min 122 W/m 41,8 km/h (6 Bft) 93,75 %
07.06.2017 18:58 18,1 C 18,9 C 17,2 C 58 % 0 lf 1013,3 hPa 0,0 l/m 0 min 0 min 120 W/m 25,1 km/h (4 Bft) 91,49 %
07.06.2017 19:00 18,1 C 18,3 C 17,2 C 58 % 0 lf 1013,2 hPa 0,0 l/m 0 min 0 min 127 W/m 33,5 km/h (5 Bft) 95,74 %
07.06.2017 19:02 18,1 C 18,3 C 16,7 C 58 % 0 lf 1013,3 hPa 0,0 l/m 0 min 0 min 142 W/m 35,6 km/h (5 Bft) 93,62 %
07.06.2017 19:04 18,1 C 18,3 C 17,2 C 58 % 0 lf 1013,3 hPa 0,0 l/m 0 min 0 min 173 W/m 35,6 km/h (5 Bft) 93,62 %
07.06.2017 19:06 18,1 C 18,9 C 17,2 C 59 % 0 lf 1013,4 hPa 0,0 l/m 0 min 0 min 176 W/m 31,4 km/h (5 Bft) 95,65 %
07.06.2017 19:08 18,1 C 18,9 C 17,8 C 59 % 0 lf 1013,5 hPa 0,0 l/m 2 min 0 min 260 W/m 35,6 km/h (5 Bft) 95,74 %
07.06.2017 19:10 18,1 C 18,9 C 17,8 C 59 % 0 lf 1013,5 hPa 0,0 l/m 2 min 0 min 333 W/m 31,4 km/h (5 Bft) 95,74 %
07.06.2017 19:12 18,1 C 18,9 C 17,2 C 59 % 0 lf 1013,5 hPa 0,0 l/m 0 min 0 min 145 W/m 27,2 km/h (4 Bft) 95,74 %
07.06.2017 19:14 18,1 C 18,9 C 17,2 C 59 % 0 lf 1013,5 hPa 0,0 l/m 0 min 0 min 150 W/m 31,4 km/h (5 Bft) 100,00 %
07.06.2017 19:16 18,1 C 18,3 C 16,7 C 59 % 0 lf 1013,4 hPa 0,0 l/m 0 min 0 min 104 W/m 29,3 km/h (5 Bft) 100,00 %
07.06.2017 19:18 18,1 C 18,3 C 16,7 C 59 % 0 lf 1013,5 hPa 0,0 l/m 0 min 0 min 111 W/m 25,1 km/h (4 Bft) 100,00 %
07.06.2017 19:20 18,0 C 18,3 C 16,7 C 58 % 0 lf 1013,5 hPa 0,0 l/m 0 min 0 min 133 W/m 29,3 km/h (5 Bft) 97,87 %
07.06.2017 19:22 18,0 C 18,3 C 17,2 C 58 % 0 lf 1013,5 hPa 0,0 l/m 0 min 0 min 148 W/m 27,2 km/h (4 Bft) 100,00 %
07.06.2017 19:24 18,0 C 18,3 C 17,2 C 58 % 0 lf 1013,5 hPa 0,0 l/m 2 min 0 min 242 W/m 35,6 km/h (5 Bft) 100,00 %
07.06.2017 19:26 18,0 C 18,3 C 17,2 C 59 % 0 lf 1013,6 hPa 0,0 l/m 2 min 0 min 273 W/m 33,5 km/h (5 Bft) 95,74 %
07.06.2017 19:28 17,9 C 18,3 C 16,7 C 58 % 0 lf 1013,5 hPa 0,0 l/m 2 min 0 min 226 W/m 39,7 km/h (6 Bft) 95,74 %
07.06.2017 19:30 18,0 C 18,3 C 16,7 C 58 % 0 lf 1013,5 hPa 0,0 l/m 2 min 0 min 165 W/m 37,7 km/h (5 Bft) 97,83 %
07.06.2017 19:32 17,9 C 18,3 C 16,7 C 58 % 0 lf 1013,6 hPa 0,0 l/m 2 min 0 min 213 W/m 29,3 km/h (5 Bft) 97,87 %
07.06.2017 19:34 17,9 C 18,3 C 16,7 C 58 % 0 lf 1013,6 hPa 0,0 l/m 2 min 0 min 210 W/m 33,5 km/h (5 Bft) 97,87 %
07.06.2017 19:36 17,9 C 18,3 C 16,7 C 58 % 0 lf 1013,6 hPa 0,0 l/m 2 min 0 min 154 W/m 33,5 km/h (5 Bft) 97,87 %
07.06.2017 19:38 17,9 C 18,3 C 16,1 C 58 % 0 lf 1013,6 hPa 0,0 l/m 2 min 0 min 142 W/m 29,3 km/h (5 Bft) 95,74 %
07.06.2017 19:40 17,9 C 18,3 C 16,7 C 58 % 0 lf 1013,6 hPa 0,0 l/m 2 min 0 min 163 W/m 20,9 km/h (4 Bft) 93,62 %
07.06.2017 19:42 17,9 C 18,3 C 16,7 C 59 % 0 lf 1013,7 hPa 0,0 l/m 2 min 0 min 202 W/m 25,1 km/h (4 Bft) 97,83 %
07.06.2017 19:44 17,9 C 18,3 C 16,7 C 59 % 0 lf 1013,6 hPa 0,0 l/m 2 min 0 min 195 W/m 23,0 km/h (4 Bft) 97,87 %
07.06.2017 19:46 17,8 C 18,3 C 16,7 C 59 % 0 lf 1013,7 hPa 0,0 l/m 2 min 0 min 158 W/m 31,4 km/h (5 Bft) 97,87 %
07.06.2017 19:48 17,8 C 17,8 C 16,7 C 59 % 0 lf 1013,7 hPa 0,0 l/m 0 min 0 min 105 W/m 37,7 km/h (5 Bft) 93,62 %
07.06.2017 19:50 17,8 C 17,8 C 16,7 C 58 % 0 lf 1013,7 hPa 0,0 l/m 0 min 0 min 86 W/m 35,6 km/h (5 Bft) 95,74 %
07.06.2017 19:52 17,8 C 17,8 C 16,1 C 59 % 0 lf 1013,9 hPa 0,0 l/m 0 min 0 min 73 W/m 27,2 km/h (4 Bft) 97,83 %
07.06.2017 19:54 17,7 C 17,8 C 16,1 C 59 % 0 lf 1013,9 hPa 0,0 l/m 0 min 0 min 75 W/m 25,1 km/h (4 Bft) 93,62 %
07.06.2017 19:56 17,7 C 17,8 C 16,1 C 59 % 0 lf 1014,0 hPa 0,0 l/m 0 min 0 min 88 W/m 18,8 km/h (3 Bft) 95,74 %
07.06.2017 19:58 17,7 C 17,8 C 16,1 C 59 % 0 lf 1013,9 hPa 0,0 l/m 0 min 0 min 104 W/m 27,2 km/h (4 Bft) 95,74 %
07.06.2017 20:00 17,7 C 17,8 C 16,1 C 59 % 0 lf 1013,9 hPa 0,0 l/m 2 min 0 min 128 W/m 23,0 km/h (4 Bft) 93,62 %
07.06.2017 20:02 17,6 C 17,8 C 16,1 C 59 % 0 lf 1013,9 hPa 0,0 l/m 2 min 0 min 124 W/m 29,3 km/h (5 Bft) 93,62 %
07.06.2017 20:04 17,6 C 17,8 C 16,1 C 58 % 0 lf 1014,0 hPa 0,0 l/m 2 min 0 min 122 W/m 43,9 km/h (6 Bft) 95,74 %
07.06.2017 20:06 17,6 C 17,8 C 16,1 C 58 % 0 lf 1014,0 hPa 0,0 l/m 2 min 0 min 138 W/m 35,6 km/h (5 Bft) 94,23 %
07.06.2017 20:08 17,6 C 17,8 C 16,1 C 59 % 0 lf 1014,1 hPa 0,0 l/m 2 min 0 min 136 W/m 37,7 km/h (5 Bft) 91,49 %
07.06.2017 20:10 17,6 C 17,8 C 16,1 C 59 % 0 lf 1014,0 hPa 0,0 l/m 2 min 0 min 130 W/m 37,7 km/h (5 Bft) 97,87 %
07.06.2017 20:12 17,6 C 17,8 C 16,1 C 59 % 0 lf 1014,1 hPa 0,0 l/m 2 min 0 min 123 W/m 25,1 km/h (4 Bft) 93,75 %
07.06.2017 20:14 17,6 C 17,8 C 16,1 C 59 % 0 lf 1014,1 hPa 0,0 l/m 2 min 0 min 115 W/m 31,4 km/h (5 Bft) 95,74 %
07.06.2017 20:16 17,5 C 17,8 C 15,6 C 59 % 0 lf 1014,1 hPa 0,0 l/m 2 min 0 min 108 W/m 25,1 km/h (4 Bft) 95,65 %
07.06.2017 20:18 17,5 C 17,2 C 15,6 C 59 % 0 lf 1014,2 hPa 0,0 l/m 2 min 0 min 103 W/m 18,8 km/h (3 Bft) 93,62 %
07.06.2017 20:20 17,4 C 17,2 C 15,6 C 59 % 0 lf 1014,3 hPa 0,0 l/m 2 min 0 min 96 W/m 29,3 km/h (5 Bft) 93,62 %
07.06.2017 20:22 17,4 C 17,2 C 15,6 C 59 % 0 lf 1014,3 hPa 0,0 l/m 2 min 0 min 89 W/m 33,5 km/h (5 Bft) 95,74 %
07.06.2017 20:24 17,4 C 17,2 C 15,6 C 59 % 0 lf 1014,3 hPa 0,0 l/m 2 min 0 min 87 W/m 31,4 km/h (5 Bft) 97,87 %
07.06.2017 20:26 17,4 C 17,2 C 15,6 C 58 % 0 lf 1014,3 hPa 0,0 l/m 0 min 0 min 81 W/m 46,0 km/h (6 Bft) 95,74 %
07.06.2017 20:28 17,3 C 17,2 C 15,6 C 58 % 0 lf 1014,3 hPa 0,0 l/m 0 min 0 min 77 W/m 31,4 km/h (5 Bft) 97,83 %
07.06.2017 20:30 17,3 C 17,2 C 15,6 C 58 % 0 lf 1014,4 hPa 0,0 l/m 0 min 0 min 74 W/m 46,0 km/h (6 Bft) 100,00 %
07.06.2017 20:32 17,2 C 17,2 C 15,6 C 58 % 0 lf 1014,4 hPa 0,0 l/m 0 min 0 min 71 W/m 43,9 km/h (6 Bft) 97,87 %
07.06.2017 20:34 17,2 C 17,2 C 15,6 C 58 % 0 lf 1014,5 hPa 0,0 l/m 0 min 0 min 68 W/m 33,5 km/h (5 Bft) 100,00 %
07.06.2017 20:36 17,2 C 17,2 C 15,0 C 58 % 0 lf 1014,5 hPa 0,0 l/m 0 min 0 min 64 W/m 25,1 km/h (4 Bft) 94,74 %
07.06.2017 20:38 17,1 C 17,2 C 15,0 C 58 % 0 lf 1014,6 hPa 0,0 l/m 0 min 0 min 62 W/m 37,7 km/h (5 Bft) 97,87 %
07.06.2017 20:40 17,1 C 16,7 C 15,0 C 58 % 0 lf 1014,6 hPa 0,0 l/m 0 min 0 min 58 W/m 35,6 km/h (5 Bft) 97,87 %
07.06.2017 20:42 17,1 C 16,7 C 15,0 C 58 % 0 lf 1014,6 hPa 0,0 l/m 0 min 0 min 55 W/m 41,8 km/h (6 Bft) 100,00 %
07.06.2017 20:44 17,0 C 16,7 C 15,0 C 58 % 0 lf 1014,8 hPa 0,0 l/m 0 min 0 min 51 W/m 35,6 km/h (5 Bft) 100,00 %
07.06.2017 20:46 17,0 C 16,7 C 15,0 C 58 % 0 lf 1014,8 hPa 0,0 l/m 0 min 0 min 46 W/m 33,5 km/h (5 Bft) 100,00 %
07.06.2017 20:48 16,9 C 16,7 C 15,0 C 58 % 0 lf 1014,7 hPa 0,0 l/m 0 min 0 min 40 W/m 25,1 km/h (4 Bft) 93,62 %
07.06.2017 20:50 16,9 C 16,7 C 15,0 C 59 % 0 lf 1014,7 hPa 0,0 l/m 0 min 0 min 41 W/m 31,4 km/h (5 Bft) 97,87 %
07.06.2017 20:52 16,8 C 16,7 C 14,4 C 59 % 0 lf 1014,8 hPa 0,0 l/m 0 min 0 min 40 W/m 35,6 km/h (5 Bft) 97,87 %
07.06.2017 20:54 16,8 C 16,7 C 14,4 C 59 % 0 lf 1014,8 hPa 0,0 l/m 0 min 0 min 39 W/m 31,4 km/h (5 Bft) 93,48 %
07.06.2017 20:56 16,8 C 16,7 C 14,4 C 59 % 0 lf 1014,8 hPa 0,0 l/m 0 min 0 min 37 W/m 35,6 km/h (5 Bft) 100,00 %
07.06.2017 20:58 16,7 C 16,7 C 14,4 C 59 % 0 lf 1014,8 hPa 0,0 l/m 0 min 0 min 33 W/m 29,3 km/h (5 Bft) 100,00 %
07.06.2017 21:00 16,7 C 16,7 C 14,4 C 59 % 0 lf 1014,8 hPa 0,0 l/m 0 min 0 min 31 W/m 29,3 km/h (5 Bft) 95,74 %
07.06.2017 21:02 16,6 C 16,1 C 14,4 C 59 % 0 lf 1014,8 hPa 0,0 l/m 0 min 0 min 29 W/m 33,5 km/h (5 Bft) 100,00 %
07.06.2017 21:04 16,6 C 16,1 C 14,4 C 58 % 0 lf 1014,8 hPa 0,0 l/m 0 min 0 min 28 W/m 31,4 km/h (5 Bft) 100,00 %
07.06.2017 21:06 16,5 C 16,1 C 14,4 C 58 % 0 lf 1014,8 hPa 0,0 l/m 0 min 0 min 27 W/m 29,3 km/h (5 Bft) 97,78 %
07.06.2017 21:08 16,5 C 16,1 C 14,4 C 59 % 0 lf 1014,8 hPa 0,0 l/m 0 min 0 min 26 W/m 27,2 km/h (4 Bft) 95,74 %
07.06.2017 21:10 16,4 C 16,1 C 14,4 C 58 % 0 lf 1014,8 hPa 0,0 l/m 0 min 0 min 26 W/m 29,3 km/h (5 Bft) 93,62 %
07.06.2017 21:12 16,4 C 16,1 C 14,4 C 58 % 0 lf 1014,8 hPa 0,0 l/m 0 min 0 min 25 W/m 27,2 km/h (4 Bft) 93,75 %
07.06.2017 21:14 16,4 C 16,1 C 13,9 C 59 % 0 lf 1015,0 hPa 0,0 l/m 0 min 0 min 24 W/m 25,1 km/h (4 Bft) 95,74 %
07.06.2017 21:16 16,3 C 16,1 C 13,9 C 59 % 0 lf 1015,0 hPa 0,0 l/m 0 min 0 min 23 W/m 16,7 km/h (3 Bft) 93,62 %
07.06.2017 21:18 16,3 C 15,6 C 13,9 C 59 % 0 lf 1015,0 hPa 0,0 l/m 0 min 0 min 21 W/m 33,5 km/h (5 Bft) 93,62 %
07.06.2017 21:20 16,2 C 16,1 C 13,9 C 59 % 0 lf 1015,0 hPa 0,0 l/m 0 min 0 min 20 W/m 20,9 km/h (4 Bft) 97,83 %
07.06.2017 21:22 16,2 C 15,6 C 13,9 C 59 % 0 lf 1015,0 hPa 0,0 l/m 0 min 0 min 19 W/m 27,2 km/h (4 Bft) 93,75 %
07.06.2017 21:24 16,2 C 15,6 C 13,9 C 59 % 0 lf 1015,0 hPa 0,0 l/m 0 min 0 min 17 W/m 14,6 km/h (3 Bft) 93,62 %
07.06.2017 21:26 16,1 C 15,6 C 13,9 C 60 % 0 lf 1015,0 hPa 0,0 l/m 0 min 0 min 15 W/m 25,1 km/h (4 Bft) 95,65 %
07.06.2017 21:28 16,1 C 15,6 C 13,9 C 60 % 0 lf 1015,0 hPa 0,0 l/m 0 min 0 min 14 W/m 16,7 km/h (3 Bft) 93,62 %
07.06.2017 21:30 16,0 C 15,6 C 13,3 C 60 % 0 lf 1015,0 hPa 0,0 l/m 0 min 0 min 12 W/m 23,0 km/h (4 Bft) 93,62 %
07.06.2017 21:32 15,9 C 15,6 C 13,3 C 60 % 0 lf 1015,1 hPa 0,0 l/m 0 min 0 min 12 W/m 27,2 km/h (4 Bft) 95,74 %
07.06.2017 21:34 15,9 C 15,6 C 13,9 C 60 % 0 lf 1015,1 hPa 0,0 l/m 0 min 0 min 11 W/m 23,0 km/h (4 Bft) 93,62 %
07.06.2017 21:36 15,9 C 15,6 C 13,3 C 60 % 0 lf 1015,1 hPa 0,0 l/m 0 min 0 min 11 W/m 23,0 km/h (4 Bft) 93,62 %
07.06.2017 21:38 15,8 C 15,6 C 13,3 C 60 % 0 lf 1015,1 hPa 0,0 l/m 0 min 0 min 10 W/m 23,0 km/h (4 Bft) 93,48 %
07.06.2017 21:40 15,8 C 15,6 C 13,3 C 60 % 0 lf 1015,2 hPa 0,0 l/m 0 min 0 min 9 W/m 18,8 km/h (3 Bft) 95,74 %
07.06.2017 21:42 15,8 C 15,6 C 13,3 C 60 % 0 lf 1015,2 hPa 0,0 l/m 0 min 0 min 9 W/m 18,8 km/h (3 Bft) 95,74 %
07.06.2017 21:44 15,7 C 15,0 C 13,3 C 61 % 0 lf 1015,3 hPa 0,0 l/m 0 min 0 min 8 W/m 18,8 km/h (3 Bft) 91,49 %
07.06.2017 21:46 15,7 C 15,0 C 12,8 C 61 % 0 lf 1015,3 hPa 0,0 l/m 0 min 0 min 7 W/m 18,8 km/h (3 Bft) 95,74 %
07.06.2017 21:48 15,6 C 15,0 C 12,8 C 61 % 0 lf 1015,3 hPa 0,0 l/m 0 min 0 min 7 W/m 20,9 km/h (4 Bft) 93,62 %
07.06.2017 21:50 15,6 C 15,0 C 13,3 C 60 % 0 lf 1015,3 hPa 0,0 l/m 0 min 0 min 7 W/m 27,2 km/h (4 Bft) 93,48 %
07.06.2017 21:52 15,5 C 15,0 C 13,3 C 60 % 0 lf 1015,3 hPa 0,0 l/m 0 min 0 min 7 W/m 27,2 km/h (4 Bft) 93,62 %
07.06.2017 21:54 15,5 C 15,0 C 13,3 C 60 % 0 lf 1015,3 hPa 0,0 l/m 0 min 0 min 5 W/m 23,0 km/h (4 Bft) 93,62 %
07.06.2017 21:56 15,5 C 15,0 C 13,3 C 61 % 0 lf 1015,3 hPa 0,0 l/m 0 min 0 min 5 W/m 20,9 km/h (4 Bft) 93,62 %
07.06.2017 21:58 15,4 C 15,0 C 13,3 C 60 % 0 lf 1015,3 hPa 0,0 l/m 0 min 0 min 5 W/m 20,9 km/h (4 Bft) 93,62 %
07.06.2017 22:00 15,4 C 15,0 C 13,3 C 60 % 0 lf 1015,3 hPa 0,0 l/m 0 min 0 min 5 W/m 27,2 km/h (4 Bft) 93,62 %
07.06.2017 22:02 15,4 C 15,0 C 13,3 C 60 % 0 lf 1015,3 hPa 0,0 l/m 0 min 0 min 5 W/m 25,1 km/h (4 Bft) 91,30 %
07.06.2017 22:04 15,4 C 15,0 C 12,8 C 61 % 0 lf 1015,4 hPa 0,0 l/m 0 min 0 min 3 W/m 20,9 km/h (4 Bft) 95,74 %
07.06.2017 22:06 15,3 C 15,0 C 12,8 C 61 % 0 lf 1015,4 hPa 0,0 l/m 0 min 0 min 0 W/m 18,8 km/h (3 Bft) 96,23 %
07.06.2017 22:08 15,3 C 14,4 C 12,8 C 61 % 0 lf 1015,4 hPa 0,0 l/m 0 min 0 min 0 W/m 16,7 km/h (3 Bft) 95,74 %
07.06.2017 22:10 15,3 C 14,4 C 12,8 C 61 % 0 lf 1015,5 hPa 0,0 l/m 0 min 0 min 0 W/m 18,8 km/h (3 Bft) 91,49 %
07.06.2017 22:12 15,2 C 14,4 C 12,8 C 61 % 0 lf 1015,5 hPa 0,0 l/m 0 min 0 min 0 W/m 18,8 km/h (3 Bft) 95,92 %
07.06.2017 22:14 15,2 C 14,4 C 12,8 C 62 % 0 lf 1015,6 hPa 0,0 l/m 0 min 0 min 0 W/m 18,8 km/h (3 Bft) 97,83 %
07.06.2017 22:16 15,1 C 14,4 C 12,8 C 62 % 0 lf 1015,7 hPa 0,0 l/m 0 min 0 min 0 W/m 20,9 km/h (4 Bft) 97,87 %
07.06.2017 22:18 15,1 C 14,4 C 12,8 C 62 % 0 lf 1015,7 hPa 0,0 l/m 0 min 0 min 0 W/m 14,6 km/h (3 Bft) 97,87 %
07.06.2017 22:20 15,1 C 14,4 C 12,8 C 62 % 0 lf 1015,7 hPa 0,0 l/m 0 min 0 min 0 W/m 20,9 km/h (4 Bft) 97,87 %
07.06.2017 22:22 15,0 C 14,4 C 12,8 C 62 % 0 lf 1015,6 hPa 0,0 l/m 0 min 0 min 0 W/m 20,9 km/h (4 Bft) 97,92 %
07.06.2017 22:24 15,0 C 14,4 C 12,2 C 62 % 0 lf 1015,8 hPa 0,0 l/m 0 min 0 min 0 W/m 23,0 km/h (4 Bft) 97,87 %
07.06.2017 22:26 14,9 C 14,4 C 12,2 C 62 % 0 lf 1015,7 hPa 0,0 l/m 0 min 0 min 0 W/m 16,7 km/h (3 Bft) 100,00 %
07.06.2017 22:28 14,9 C 14,4 C 12,2 C 63 % 0 lf 1015,7 hPa 0,0 l/m 0 min 0 min 0 W/m 16,7 km/h (3 Bft) 100,00 %
07.06.2017 22:30 14,9 C 14,4 C 12,2 C 63 % 0 lf 1015,6 hPa 0,0 l/m 0 min 0 min 0 W/m 18,8 km/h (3 Bft) 100,00 %
07.06.2017 22:32 14,8 C 14,4 C 12,2 C 63 % 0 lf 1015,7 hPa 0,0 l/m 0 min 0 min 0 W/m 23,0 km/h (4 Bft) 100,00 %
07.06.2017 22:34 14,8 C 14,4 C 12,2 C 63 % 0 lf 1015,6 hPa 0,0 l/m 0 min 0 min 0 W/m 18,8 km/h (3 Bft) 95,74 %
07.06.2017 22:36 14,8 C 14,4 C 12,2 C 63 % 0 lf 1015,7 hPa 0,0 l/m 0 min 0 min 0 W/m 27,2 km/h (4 Bft) 100,00 %
07.06.2017 22:38 14,7 C 14,4 C 12,2 C 63 % 0 lf 1015,7 hPa 0,0 l/m 0 min 0 min 0 W/m 25,1 km/h (4 Bft) 100,00 %
07.06.2017 22:40 14,7 C 14,4 C 12,8 C 63 % 0 lf 1015,6 hPa 0,0 l/m 0 min 0 min 0 W/m 20,9 km/h (4 Bft) 97,87 %
07.06.2017 22:42 14,7 C 14,4 C 12,2 C 63 % 0 lf 1015,7 hPa 0,0 l/m 0 min 0 min 0 W/m 23,0 km/h (4 Bft) 100,00 %
07.06.2017 22:44 14,6 C 14,4 C 12,2 C 63 % 0 lf 1015,6 hPa 0,0 l/m 0 min 0 min 0 W/m 29,3 km/h (5 Bft) 100,00 %
07.06.2017 22:46 14,6 C 14,4 C 12,8 C 62 % 0 lf 1015,8 hPa 0,0 l/m 0 min 0 min 0 W/m 29,3 km/h (5 Bft) 97,87 %
07.06.2017 22:48 14,6 C 14,4 C 12,8 C 62 % 0 lf 1015,8 hPa 0,0 l/m 0 min 0 min 0 W/m 27,2 km/h (4 Bft) 100,00 %
07.06.2017 22:50 14,6 C 14,4 C 12,8 C 62 % 0 lf 1015,8 hPa 0,0 l/m 0 min 0 min 0 W/m 29,3 km/h (5 Bft) 97,87 %
07.06.2017 22:52 14,7 C 14,4 C 12,8 C 62 % 0 lf 1015,7 hPa 0,0 l/m 0 min 0 min 0 W/m 27,2 km/h (4 Bft) 97,87 %
07.06.2017 22:54 14,7 C 14,4 C 12,8 C 62 % 0 lf 1015,7 hPa 0,0 l/m 0 min 0 min 0 W/m 29,3 km/h (5 Bft) 100,00 %
07.06.2017 22:56 14,7 C 14,4 C 12,8 C 62 % 0 lf 1015,9 hPa 0,0 l/m 0 min 0 min 0 W/m 31,4 km/h (5 Bft) 100,00 %
07.06.2017 22:58 14,7 C 14,4 C 12,8 C 61 % 0 lf 1015,9 hPa 0,0 l/m 0 min 0 min 0 W/m 23,0 km/h (4 Bft) 100,00 %
07.06.2017 23:00 14,7 C 14,4 C 12,8 C 62 % 0 lf 1015,9 hPa 0,0 l/m 0 min 0 min 0 W/m 20,9 km/h (4 Bft) 100,00 %
07.06.2017 23:02 14,7 C 14,4 C 12,8 C 62 % 0 lf 1015,9 hPa 0,0 l/m 0 min 0 min 0 W/m 27,2 km/h (4 Bft) 100,00 %
07.06.2017 23:04 14,7 C 14,4 C 12,8 C 61 % 0 lf 1015,9 hPa 0,0 l/m 0 min 0 min 0 W/m 25,1 km/h (4 Bft) 100,00 %
07.06.2017 23:06 14,7 C 14,4 C 12,8 C 61 % 0 lf 1015,9 hPa 0,0 l/m 0 min 0 min 0 W/m 25,1 km/h (4 Bft) 100,00 %
07.06.2017 23:08 14,7 C 14,4 C 12,8 C 61 % 0 lf 1015,9 hPa 0,0 l/m 0 min 0 min 0 W/m 18,8 km/h (3 Bft) 95,74 %
07.06.2017 23:10 14,7 C 14,4 C 12,8 C 61 % 0 lf 1015,9 hPa 0,0 l/m 0 min 0 min 0 W/m 23,0 km/h (4 Bft) 95,74 %
07.06.2017 23:12 14,7 C 14,4 C 12,8 C 62 % 0 lf 1015,9 hPa 0,0 l/m 0 min 0 min 0 W/m 25,1 km/h (4 Bft) 96,23 %
07.06.2017 23:14 14,7 C 14,4 C 12,8 C 62 % 0 lf 1015,9 hPa 0,0 l/m 0 min 0 min 0 W/m 25,1 km/h (4 Bft) 95,65 %
07.06.2017 23:16 14,7 C 14,4 C 12,8 C 62 % 0 lf 1015,9 hPa 0,0 l/m 0 min 0 min 0 W/m 18,8 km/h (3 Bft) 97,87 %
07.06.2017 23:18 14,7 C 14,4 C 12,8 C 62 % 0 lf 1016,0 hPa 0,0 l/m 0 min 0 min 0 W/m 18,8 km/h (3 Bft) 97,87 %
07.06.2017 23:20 14,7 C 14,4 C 12,8 C 62 % 0 lf 1016,0 hPa 0,0 l/m 0 min 0 min 0 W/m 25,1 km/h (4 Bft) 95,74 %
07.06.2017 23:22 14,6 C 14,4 C 12,8 C 62 % 0 lf 1016,1 hPa 0,0 l/m 0 min 0 min 0 W/m 25,1 km/h (4 Bft) 95,74 %
07.06.2017 23:24 14,7 C 14,4 C 12,8 C 62 % 0 lf 1016,1 hPa 0,0 l/m 0 min 0 min 0 W/m 23,0 km/h (4 Bft) 97,83 %
07.06.2017 23:26 14,7 C 14,4 C 12,8 C 62 % 0 lf 1016,2 hPa 0,0 l/m 0 min 0 min 0 W/m 14,6 km/h (3 Bft) 95,74 %
07.06.2017 23:28 14,7 C 14,4 C 12,8 C 62 % 0 lf 1016,1 hPa 0,0 l/m 0 min 0 min 0 W/m 18,8 km/h (3 Bft) 91,49 %
07.06.2017 23:30 14,6 C 14,4 C 12,8 C 62 % 0 lf 1016,1 hPa 0,0 l/m 0 min 0 min 0 W/m 18,8 km/h (3 Bft) 97,87 %
07.06.2017 23:32 14,6 C 14,4 C 12,8 C 62 % 0 lf 1016,1 hPa 0,0 l/m 0 min 0 min 0 W/m 20,9 km/h (4 Bft) 95,83 %
07.06.2017 23:34 14,6 C 14,4 C 12,2 C 63 % 0 lf 1016,1 hPa 0,0 l/m 0 min 0 min 0 W/m 12,6 km/h (3 Bft) 97,87 %
07.06.2017 23:36 14,6 C 14,4 C 12,2 C 63 % 0 lf 1016,2 hPa 0,0 l/m 0 min 0 min 0 W/m 20,9 km/h (4 Bft) 92,11 %
07.06.2017 23:38 14,5 C 14,4 C 12,2 C 63 % 0 lf 1016,2 hPa 0,0 l/m 0 min 0 min 0 W/m 14,6 km/h (3 Bft) 95,65 %
07.06.2017 23:40 14,5 C 13,9 C 12,2 C 63 % 0 lf 1016,2 hPa 0,0 l/m 0 min 0 min 0 W/m 14,6 km/h (3 Bft) 97,87 %
07.06.2017 23:42 14,5 C 13,9 C 12,2 C 63 % 0 lf 1016,2 hPa 0,0 l/m 0 min 0 min 0 W/m 16,7 km/h (3 Bft) 95,83 %
07.06.2017 23:44 14,4 C 13,9 C 11,7 C 63 % 0 lf 1016,1 hPa 0,0 l/m 0 min 0 min 0 W/m 14,6 km/h (3 Bft) 91,49 %
07.06.2017 23:46 14,4 C 13,9 C 11,7 C 63 % 0 lf 1016,2 hPa 0,0 l/m 0 min 0 min 0 W/m 12,6 km/h (3 Bft) 97,87 %
07.06.2017 23:48 14,3 C 13,9 C 11,7 C 64 % 0 lf 1016,2 hPa 0,0 l/m 0 min 0 min 0 W/m 12,6 km/h (3 Bft) 91,49 %
07.06.2017 23:50 14,3 C 13,9 C 11,7 C 64 % 0 lf 1016,2 hPa 0,0 l/m 0 min 0 min 0 W/m 12,6 km/h (3 Bft) 95,65 %
07.06.2017 23:52 14,2 C 13,3 C 11,7 C 64 % 0 lf 1016,2 hPa 0,0 l/m 0 min 0 min 0 W/m 12,6 km/h (3 Bft) 93,75 %
07.06.2017 23:54 14,2 C 13,3 C 11,7 C 64 % 0 lf 1016,2 hPa 0,0 l/m 0 min 0 min 0 W/m 20,9 km/h (4 Bft) 93,62 %
07.06.2017 23:56 14,2 C 13,3 C 11,7 C 64 % 0 lf 1016,1 hPa 0,0 l/m 0 min 0 min 0 W/m 12,6 km/h (3 Bft) 95,74 %
07.06.2017 23:58 14,2 C 13,3 C 11,7 C 64 % 0 lf 1016,2 hPa 0,0 l/m 0 min 0 min 0 W/m 14,6 km/h (3 Bft) 95,65 %
_ Min-Zeit 05:54 04:50 04:56 18:50 00:00 00:00 - - - - 00:30 06:32
Minimum _ 11,8 C 11,7 C 10,0 C 58 % 0 lf 1004,7 hPa - - - - 12,6 km/h (3 Bft) 70,21 %
_ Max-Zeit 18:42 13:12 15:32 13:42 11:48 23:26 13:28 06:54 03:50 13:22 09:14 00:16
Maximum _ 18,2 C 24,4 C 22,2 C 84 % 15 lf 1016,2 hPa 0,4 l/m 2 min 2 min 1090 W/m 64,9 km/h
W-SW (8 Bft)
100,00 %
Durchschnitt _ 14,6 C 15,6 C 13,9 C 72 % 1 lf 1009,9 hPa #1,2 l/m #4:58 h #1:24 h 190 W/m 32,6 km/h (5 Bft) 95,01 %
© 2017 W. Hausmann